Sigfox identifier Datetime Temperature Humidity SNR
0039E050 2019-04-12 12:23:36 23.5 17 25
0039E050 2019-04-12 11:51:18 23.5 17 24.9
0039E050 2019-04-12 11:19:00 23.5 17 24.8
0039E050 2019-04-12 10:46:42 23.4 18 25
0039E050 2019-04-12 10:14:23 23.3 17 24.9
0039E050 2019-04-12 09:42:03 23.4 17 24.8
0039E050 2019-04-12 09:09:46 23.4 17 24.9
0039E050 2019-04-12 08:37:28 23.3 17 24.8
0039E050 2019-04-12 08:05:10 23.4 16 24.9
0039E050 2019-04-12 07:32:52 23.3 17 24.8
0039E050 2019-04-12 07:00:33 23.3 17 24.8
0039E050 2019-04-12 06:28:13 23.4 17 24.8
0039E050 2019-04-12 05:55:56 23.4 17 24.9
0039E050 2019-04-12 05:23:36 23.4 17 24.8
0039E050 2019-04-12 04:51:17 23.4 17 24.8
0039E050 2019-04-12 04:18:58 23.4 17 24.7
0039E050 2019-04-12 03:46:37 23.5 17 24.8
0039E050 2019-04-12 03:14:17 23.6 17 24.7
0039E050 2019-04-12 02:41:58 23.7 17 24.9
0039E050 2019-04-12 02:09:40 23.8 18 24.9
0039E050 2019-04-12 01:37:23 23.9 18 24.8
0039E050 2019-04-12 01:05:06 24 18 24.8
0039E050 2019-04-12 00:32:11 23.9 17 24.9
0039E050 2019-04-11 23:59:52 23.9 18 24.9
0039E050 2019-04-11 23:27:32 23.9 18 24.9
0039E050 2019-04-11 22:55:13 23.9 18 24.8
0039E050 2019-04-11 22:22:54 23.9 17 24.9
0039E050 2019-04-11 21:50:35 23.8 17 24.8
0039E050 2019-04-11 21:18:16 23.8 18 24.9
0039E050 2019-04-11 20:45:57 23.8 17 24.9
0039E050 2019-04-11 20:13:37 23.7 18 24.9
0039E050 2019-04-11 19:41:15 23.7 17 24.9
0039E050 2019-04-11 19:08:56 23.7 17 24.8
0039E050 2019-04-11 18:36:35 23.7 16 24.8
0039E050 2019-04-11 18:04:15 23.4 16 24.8
0039E050 2019-04-11 17:31:56 23.2 16 24.6
0039E050 2019-04-11 16:59:33 23.1 15 24.7
0039E050 2019-04-11 16:27:15 23.1 15 24.8
0039E050 2019-04-11 15:54:55 23.1 15 24.9
0039E050 2019-04-11 15:22:37 23.2 15 24.8
0039E050 2019-04-11 14:50:19 23.2 16 24.9
0039E050 2019-04-11 14:18:01 23.2 16 24.8
0039E050 2019-04-11 13:45:41 23.1 16 24.7
0039E050 2019-04-11 13:13:22 23.2 16 24.7
0039E050 2019-04-11 12:41:03 23.2 16 24.8
0039E050 2019-04-11 12:08:42 23.2 17 24.6
0039E050 2019-04-11 11:36:22 23.3 17 24.6
0039E050 2019-04-11 11:04:01 23.2 18 24.5
0039E050 2019-04-11 10:31:43 23.3 19 24.5
0039E050 2019-04-11 09:59:27 23.3 21 25
0039E050 2019-04-11 09:27:11 23.3 22 25.1
0039E050 2019-04-11 08:54:50 23.2 17 25.2
0039E050 2019-04-11 08:22:29 23.2 17 25.2
0039E050 2019-04-11 07:50:09 23.2 18 25
0039E050 2019-04-11 07:17:50 23.2 18 25.1
0039E050 2019-04-11 06:45:29 23.2 18 25.2
0039E050 2019-04-11 06:13:10 23.2 18 25.2
0039E050 2019-04-11 05:40:50 23.2 18 25.3
0039E050 2019-04-11 05:08:31 23.3 19 25.3
0039E050 2019-04-11 04:36:11 23.3 19 25.4
0039E050 2019-04-11 04:03:50 23.3 19 25.4
0039E050 2019-04-11 03:31:30 23.4 19 25.4
0039E050 2019-04-11 02:59:09 23.4 19 25.2
0039E050 2019-04-11 02:26:49 23.5 19 25.2
0039E050 2019-04-11 01:54:28 23.5 19 25.3
0039E050 2019-04-11 01:22:06 23.6 19 25.3
0039E050 2019-04-11 00:49:45 23.8 18 25.3
0039E050 2019-04-11 00:17:23 23.8 18 25.3
0039E050 2019-04-10 23:45:02 23.8 19 25.4
0039E050 2019-04-10 23:12:40 23.7 19 25.4
0039E050 2019-04-10 22:40:19 23.7 19 25.4
0039E050 2019-04-10 22:07:59 23.7 18 25.5
0039E050 2019-04-10 21:35:05 23.7 18 25.4
0039E050 2019-04-10 21:02:44 23.6 18 25.1
0039E050 2019-04-10 20:30:22 23.6 18 24.9
0039E050 2019-04-10 19:58:01 23.5 18 24.9
0039E050 2019-04-10 19:25:39 23.4 18 24.8
0039E050 2019-04-10 18:53:18 23.3 18 24.9
0039E050 2019-04-10 18:20:55 23.1 18 24.8
0039E050 2019-04-10 17:48:33 23.1 17 24.7
0039E050 2019-04-10 17:16:12 23.1 17 24.8
0039E050 2019-04-10 16:43:50 23.1 18 24.7
0039E050 2019-04-10 16:11:28 23.1 18 24.7
0039E050 2019-04-10 15:39:07 23.1 18 24.8
0039E050 2019-04-10 15:06:45 23.1 18 24.8
0039E050 2019-04-10 14:34:27 23.1 18 24.9
0039E050 2019-04-10 14:02:08 23.1 18 24.9
0039E050 2019-04-10 13:29:50 23.1 19 25
0039E050 2019-04-10 12:57:30 23.1 19 24.8
0039E050 2019-04-10 12:25:08 23.2 19 24.7
0039E050 2019-04-10 11:52:45 23.2 20 24.6
0039E050 2019-04-10 11:20:22 23.2 21 24.6
0039E050 2019-04-10 10:48:01 23.2 22 24.7
0039E050 2019-04-10 10:15:40 23.3 24 24.6
0039E050 2019-04-10 09:43:18 23.3 25 24.5
0039E050 2019-04-10 09:10:57 23.2 22 24.3
0039E050 2019-04-10 08:38:35 23.2 22 24.4
0039E050 2019-04-10 08:06:14 23.2 22 24.4
0039E050 2019-04-10 07:33:54 23.2 23 24.4
0039E050 2019-04-10 07:01:34 23.3 23 24.5
0039E050 2019-04-10 06:29:13 23.3 23 24.6
0039E050 2019-04-10 05:56:53 23.3 23 24.6
0039E050 2019-04-10 05:24:32 23.3 24 24.6
0039E050 2019-04-10 04:52:14 23.4 25 24.6
0039E050 2019-04-10 04:19:53 23.4 26 24.6
0039E050 2019-04-10 03:47:32 23.4 27 24.6
0039E050 2019-04-10 03:15:10 23.5 27 24.4
0039E050 2019-04-10 02:42:48 23.5 28 24.4
0039E050 2019-04-10 02:10:27 23.7 28 24.3
0039E050 2019-04-10 01:38:07 23.8 29 24.2
0039E050 2019-04-10 01:05:45 24 30 24.2
0039E050 2019-04-10 00:33:23 24.1 29 24.1
0039E050 2019-04-10 00:01:02 24.1 33 24.1
0039E050 2019-04-09 23:28:41 24 31 24.1
0039E050 2019-04-09 22:56:23 24 31 24.2
0039E050 2019-04-09 22:24:02 23.9 31 24.3
0039E050 2019-04-09 21:51:42 23.9 28 24.4
0039E050 2019-04-09 21:19:21 23.8 26 24.3
0039E050 2019-04-09 20:47:01 23.8 26 24.4
0039E050 2019-04-09 20:14:39 23.7 26 24.4
0039E050 2019-04-09 19:42:18 23.5 26 24.5
0039E050 2019-04-09 19:09:58 23.4 26 24.6
0039E050 2019-04-09 18:37:03 23.3 25 24.5
0039E050 2019-04-09 18:04:42 23.2 25 24.5
0039E050 2019-04-09 17:32:22 23.3 25 24.4
0039E050 2019-04-09 17:00:00 23.2 25 24.5
0039E050 2019-04-09 16:27:41 23.2 25 24.5
0039E050 2019-04-09 15:55:21 23.2 25 24.6
0039E050 2019-04-09 15:23:02 23.2 25 24.7
0039E050 2019-04-09 14:50:43 23.2 25 24.7
0039E050 2019-04-09 14:18:22 23.2 25 24.9
0039E050 2019-04-09 13:46:05 23.3 25 24.9
0039E050 2019-04-09 13:13:42 23.3 25 24.9
0039E050 2019-04-09 12:41:23 23.3 25 25
0039E050 2019-04-09 12:09:03 23.3 26 25.1
0039E050 2019-04-09 11:36:42 23.3 26 25.1
0039E050 2019-04-09 11:04:22 23.4 27 25.1
0039E050 2019-04-09 10:32:00 23.4 28 25
0039E050 2019-04-09 09:59:39 23.4 31 25.1
0039E050 2019-04-09 09:27:18 23.3 28 25.1
0039E050 2019-04-09 08:54:57 23.3 26 25.1
0039E050 2019-04-09 08:22:38 23.3 26 25.1
0039E050 2019-04-09 07:50:16 23.3 26 25
0039E050 2019-04-09 07:17:55 23.3 26 25.1
0039E050 2019-04-09 06:45:35 23.4 26 25.1
0039E050 2019-04-09 06:13:13 23.4 27 24.9
0039E050 2019-04-09 05:40:54 23.4 27 25.1
0039E050 2019-04-09 05:08:36 23.4 28 25
0039E050 2019-04-09 04:36:16 23.4 28 25
0039E050 2019-04-09 04:03:55 23.5 29 25
0039E050 2019-04-09 03:31:35 23.5 29 25
0039E050 2019-04-09 02:59:15 23.6 30 24.9
0039E050 2019-04-09 02:26:55 23.7 30 24.8
0039E050 2019-04-09 01:54:35 23.8 30 24.8
0039E050 2019-04-09 01:22:15 23.9 31 24.7
0039E050 2019-04-09 00:49:55 24 32 24.5
0039E050 2019-04-09 00:17:34 24.1 32 24.5
0039E050 2019-04-08 23:45:13 24.1 31 24.7
0039E050 2019-04-08 23:12:52 24 31 24.6
0039E050 2019-04-08 22:40:35 24 30 24.6
0039E050 2019-04-08 22:08:16 23.9 27 24.7
0039E050 2019-04-08 21:36:00 23.8 27 24.8
0039E050 2019-04-08 21:03:40 23.7 28 25
0039E050 2019-04-08 20:31:19 23.6 25 24.8
0039E050 2019-04-08 19:58:58 23.5 24 24.9
0039E050 2019-04-08 19:26:37 23.3 25 24.8
0039E050 2019-04-08 18:54:15 23.2 25 24.9
0039E050 2019-04-08 18:21:54 23.2 24 24.9
0039E050 2019-04-08 17:49:31 23.2 24 24.9
0039E050 2019-04-08 17:17:10 23.2 24 24.8
0039E050 2019-04-08 16:44:48 23.2 24 24.9
0039E050 2019-04-08 16:12:27 23.2 24 24.7
0039E050 2019-04-08 15:39:32 23.2 24 24.9
0039E050 2019-04-08 15:07:11 23.3 24 24.9
0039E050 2019-04-08 14:34:50 23.3 24 25
0039E050 2019-04-08 14:02:30 23.3 24 25
0039E050 2019-04-08 13:30:08 23.3 24 25
0039E050 2019-04-08 12:57:46 23.3 24 25.1
0039E050 2019-04-08 12:25:24 23.3 25 25.3
0039E050 2019-04-08 11:53:03 23.4 25 25.3
0039E050 2019-04-08 11:20:42 23.4 26 25.3
0039E050 2019-04-08 10:48:21 23.4 26 25.3
0039E050 2019-04-08 10:15:59 23.4 28 25.3
0039E050 2019-04-08 09:43:38 23.4 30 25.3
0039E050 2019-04-08 09:11:18 23.4 26 25.2
0039E050 2019-04-08 08:38:58 23.4 25 25.1
0039E050 2019-04-08 08:06:38 23.4 24 25.1
0039E050 2019-04-08 07:34:18 23.4 24 25.2
0039E050 2019-04-08 07:01:55 23.4 23 25
0039E050 2019-04-08 06:29:35 23.4 23 25.1
0039E050 2019-04-08 05:57:14 23.4 23 25.1
0039E050 2019-04-08 05:24:52 23.5 23 25.2
0039E050 2019-04-08 04:52:31 23.5 23 25.1
0039E050 2019-04-08 04:20:12 23.6 24 25.2
0039E050 2019-04-08 03:47:51 23.6 25 25.2
0039E050 2019-04-08 03:15:32 23.7 26 25.2
0039E050 2019-04-08 02:43:17 23.8 26 25.1
0039E050 2019-04-08 02:10:59 24 25 25.1
0039E050 2019-04-08 01:38:38 24.1 25 25.1
0039E050 2019-04-08 01:06:17 24.2 24 25
0039E050 2019-04-08 00:34:00 24.2 23 25.1
0039E050 2019-04-08 00:01:43 24.2 24 25
0039E050 2019-04-07 23:29:27 24.2 23 24.9
0039E050 2019-04-07 22:57:07 24.1 23 24.9
0039E050 2019-04-07 22:24:48 24.1 24 24.9
0039E050 2019-04-07 21:52:28 24.1 23 24.9
0039E050 2019-04-07 21:20:09 24.1 23 24.8
0039E050 2019-04-07 20:47:50 24.2 23 24.9
0039E050 2019-04-07 20:15:31 24.3 23 24.7
0039E050 2019-04-07 19:43:11 24.3 23 24.7
0039E050 2019-04-07 19:10:52 24.3 23 24.8
0039E050 2019-04-07 18:38:33 24.2 24 24.8
0039E050 2019-04-07 18:06:14 23.8 24 24.8
0039E050 2019-04-07 17:33:53 23.6 23 24.9
0039E050 2019-04-07 17:01:33 23.7 22 24.8
0039E050 2019-04-07 16:29:12 23.8 22 24.7
0039E050 2019-04-07 15:56:53 23.9 23 24.9
0039E050 2019-04-07 15:24:34 24 24 25
0039E050 2019-04-07 14:52:13 24 24 25.1
0039E050 2019-04-07 14:19:56 24 26 25
0039E050 2019-04-07 13:47:37 23.9 27 25
0039E050 2019-04-07 13:15:17 23.8 23 25.1
0039E050 2019-04-07 12:42:26 23.7 22 25.3
0039E050 2019-04-07 12:10:09 23.6 22 25.3
0039E050 2019-04-07 11:37:52 23.5 22 25.4
0039E050 2019-04-07 11:05:33 23.4 22 25.5
0039E050 2019-04-07 10:33:15 23.4 21 25.5
0039E050 2019-04-07 10:00:56 23.4 22 25.4
0039E050 2019-04-07 09:28:37 23.4 21 25.4
0039E050 2019-04-07 08:56:19 23.4 21 25.4
0039E050 2019-04-07 08:24:00 23.4 21 25.3
0039E050 2019-04-07 07:51:43 23.4 21 25.5
0039E050 2019-04-07 07:19:22 23.4 20 25.5
0039E050 2019-04-07 06:47:03 23.4 20 25.5
0039E050 2019-04-07 06:14:45 23.4 20 25.4
0039E050 2019-04-07 05:42:27 23.4 21 25.5
0039E050 2019-04-07 05:10:09 23.5 21 25.4
0039E050 2019-04-07 04:37:50 23.5 21 25.4
0039E050 2019-04-07 04:05:30 23.6 21 25.4
0039E050 2019-04-07 03:33:07 23.7 21 25.2
0039E050 2019-04-07 03:00:47 23.7 20 25.1
0039E050 2019-04-07 02:28:26 23.9 21 24.9
0039E050 2019-04-07 01:56:07 24 21 25
0039E050 2019-04-07 01:23:47 24.2 21 24.9
0039E050 2019-04-07 00:51:29 24.3 21 24.9
0039E050 2019-04-07 00:19:12 24.3 21 24.9
0039E050 2019-04-06 23:46:53 24.3 21 24.9
0039E050 2019-04-06 23:14:32 24.4 20 24.7
0039E050 2019-04-06 22:42:10 24.4 20 24.7
0039E050 2019-04-06 22:09:50 24.4 21 24.5
0039E050 2019-04-06 21:37:30 24.3 21 24.5
0039E050 2019-04-06 21:05:11 24.2 20 24.5
0039E050 2019-04-06 20:32:52 24.3 19 24.5
0039E050 2019-04-06 20:00:34 24.3 19 24.6
0039E050 2019-04-06 19:28:12 24.3 19 24.5
0039E050 2019-04-06 18:55:54 24.4 20 24.5
0039E050 2019-04-06 18:23:33 24.4 20 24.4
0039E050 2019-04-06 17:51:12 24.3 21 24.8
0039E050 2019-04-06 17:18:52 24.2 21 24.8
0039E050 2019-04-06 16:46:34 24.2 21 24.8
0039E050 2019-04-06 16:14:14 24.1 23 24.7
0039E050 2019-04-06 15:41:54 24.1 24 24.7
0039E050 2019-04-06 15:09:37 24 26 24.9
0039E050 2019-04-06 14:37:18 23.9 22 25.1
0039E050 2019-04-06 14:05:01 23.8 23 25
0039E050 2019-04-06 13:32:44 23.7 23 25.1
0039E050 2019-04-06 13:00:27 23.5 23 25.2
0039E050 2019-04-06 12:28:11 23.4 23 25.2
0039E050 2019-04-06 11:55:54 23.3 22 25.3
0039E050 2019-04-06 11:23:35 23.2 21 25.3
0039E050 2019-04-06 10:51:15 23.2 20 25.3
0039E050 2019-04-06 10:18:58 23.2 21 25.2
0039E050 2019-04-06 09:46:07 23.3 21 25.3
0039E050 2019-04-06 09:13:49 23.2 21 25.3
0039E050 2019-04-06 08:41:32 23.2 21 25.5
0039E050 2019-04-06 08:09:14 23.2 21 25.4
0039E050 2019-04-06 07:36:55 23.3 21 25.4
0039E050 2019-04-06 07:04:36 23.3 21 25.3
0039E050 2019-04-06 06:32:18 23.3 21 25.4
0039E050 2019-04-06 05:59:59 23.3 22 25.3
0039E050 2019-04-06 05:27:41 23.4 22 25.3
0039E050 2019-04-06 04:55:24 23.5 22 24.9
0039E050 2019-04-06 04:23:06 23.5 22 24.9
0039E050 2019-04-06 03:50:47 23.7 21 24.9
0039E050 2019-04-06 03:18:29 23.8 21 24.9
0039E050 2019-04-06 02:46:11 24 21 24.8
0039E050 2019-04-06 02:13:52 24.1 21 24.6
0039E050 2019-04-06 01:41:33 24.1 21 24.5
0039E050 2019-04-06 01:09:13 24.1 22 24.6
0039E050 2019-04-06 00:36:54 24 21 24.7
0039E050 2019-04-06 00:04:35 24 21 24.6
0039E050 2019-04-05 23:32:16 24 21 24.7
0039E050 2019-04-05 22:59:57 24 22 24.5
0039E050 2019-04-05 22:27:37 23.9 20 24.4
0039E050 2019-04-05 21:55:18 23.9 20 24.4
0039E050 2019-04-05 21:22:59 23.9 20 24.5
0039E050 2019-04-05 20:50:39 23.9 19 24.5
0039E050 2019-04-05 20:18:21 24 19 24.4
0039E050 2019-04-05 19:46:03 24.1 19 24.3
0039E050 2019-04-05 19:13:45 24.1 19 24.2
0039E050 2019-04-05 18:41:28 24.1 19 24.4
0039E050 2019-04-05 18:09:10 24 19 24.4
0039E050 2019-04-05 17:36:53 23.9 19 24.5
0039E050 2019-04-05 17:04:35 23.8 20 24.4
0039E050 2019-04-05 16:32:18 23.6 20 24.5
0039E050 2019-04-05 16:00:00 23.6 20 24.6
0039E050 2019-04-05 15:27:39 23.6 21 24.6
0039E050 2019-04-05 14:55:19 23.5 21 24.7
0039E050 2019-04-05 14:23:00 23.5 21 24.9
0039E050 2019-04-05 13:50:42 23.5 22 25
0039E050 2019-04-05 13:18:24 23.5 22 25.1
0039E050 2019-04-05 12:46:05 23.5 22 25
0039E050 2019-04-05 12:13:47 23.5 24 25
0039E050 2019-04-05 11:41:28 23.5 26 24.9
0039E050 2019-04-05 11:09:12 23.4 27 24.8
0039E050 2019-04-05 10:36:56 23.4 23 24.9
0039E050 2019-04-05 10:04:37 23.3 22 24.9
0039E050 2019-04-05 09:32:17 23.3 21 25
0039E050 2019-04-05 08:59:58 23.3 21 25.1
0039E050 2019-04-05 08:27:38 23.3 21 25
0039E050 2019-04-05 07:55:18 23.3 22 25
0039E050 2019-04-05 07:22:59 23.3 21 25
0039E050 2019-04-05 06:50:08 23.3 21 25.1
0039E050 2019-04-05 06:17:50 23.3 21 25.1
0039E050 2019-04-05 05:45:31 23.3 20 25.1
0039E050 2019-04-05 05:13:14 23.3 21 25
0039E050 2019-04-05 04:40:56 23.3 21 24.9
0039E050 2019-04-05 04:08:38 23.4 20 24.8
0039E050 2019-04-05 03:36:20 23.5 20 24.8
0039E050 2019-04-05 03:04:02 23.6 20 24.7
0039E050 2019-04-05 02:31:44 23.7 20 24.6
0039E050 2019-04-05 01:59:26 23.8 20 24.5
0039E050 2019-04-05 01:27:08 23.9 21 24.3
0039E050 2019-04-05 00:54:52 23.9 22 24.1
0039E050 2019-04-05 00:22:35 23.8 21 24.2
0039E050 2019-04-04 23:50:17 23.8 22 24.4
0039E050 2019-04-04 23:17:58 23.8 21 24.4
0039E050 2019-04-04 22:45:39 23.8 21 24.4
0039E050 2019-04-04 22:13:21 23.8 20 24.4
0039E050 2019-04-04 21:41:01 23.8 20 24.3
0039E050 2019-04-04 21:08:42 23.8 20 24.3
0039E050 2019-04-04 20:36:23 23.8 19 24.3
0039E050 2019-04-04 20:04:04 23.7 19 24.2
0039E050 2019-04-04 19:31:48 23.7 19 24.3
0039E050 2019-04-04 18:59:30 23.6 19 24.4
0039E050 2019-04-04 18:27:11 23.3 20 24.3
0039E050 2019-04-04 17:54:50 23.1 19 24.3
0039E050 2019-04-04 17:22:32 23 17 24.2
0039E050 2019-04-04 16:50:12 22.9 18 24.3
0039E050 2019-04-04 16:17:53 22.9 18 24.3
0039E050 2019-04-04 15:45:33 22.9 18 24.4
0039E050 2019-04-04 15:13:13 22.9 18 24.4
0039E050 2019-04-04 14:40:52 22.9 18 24.6
0039E050 2019-04-04 14:08:32 23 19 24.6
0039E050 2019-04-04 13:36:12 23 19 24.7
0039E050 2019-04-04 13:03:52 23 19 24.7
0039E050 2019-04-04 12:31:33 23 20 24.7
0039E050 2019-04-04 11:59:14 23.1 21 24.7
0039E050 2019-04-04 11:26:55 23.1 21 24.7
0039E050 2019-04-04 10:54:34 23.1 22 24.7
0039E050 2019-04-04 10:22:14 23.1 23 24.6
0039E050 2019-04-04 09:49:56 23.1 24 24.7
0039E050 2019-04-04 09:17:36 23 20 24.7
0039E050 2019-04-04 08:45:13 23 20 24.7
0039E050 2019-04-04 08:12:53 23 19 24.7
0039E050 2019-04-04 07:40:34 23 19 24.7
0039E050 2019-04-04 07:08:13 23 20 24.7
0039E050 2019-04-04 06:35:54 23 20 24.7
0039E050 2019-04-04 06:03:33 23 19 24.7
0039E050 2019-04-04 05:31:13 23.1 19 24.6
0039E050 2019-04-04 04:58:53 23.1 19 24.7
0039E050 2019-04-04 04:26:33 23.1 19 24.7
0039E050 2019-04-04 03:53:41 23.2 20 24.8
0039E050 2019-04-04 03:21:21 23.3 19 24.7
0039E050 2019-04-04 02:49:02 23.4 19 24.7
0039E050 2019-04-04 02:16:42 23.6 19 24.6
0039E050 2019-04-04 01:44:22 23.7 19 24.6
0039E050 2019-04-04 01:12:02 23.8 19 24.6
0039E050 2019-04-04 00:39:42 23.8 20 24.6
0039E050 2019-04-04 00:07:22 23.8 21 24.6
0039E050 2019-04-03 23:35:02 23.8 20 24.8
0039E050 2019-04-03 23:02:43 23.7 19 25
0039E050 2019-04-03 22:30:27 23.7 19 25
0039E050 2019-04-03 21:58:12 23.6 20 24.9
0039E050 2019-04-03 21:25:53 23.6 20 24.9
0039E050 2019-04-03 20:53:33 23.5 21 24.8
0039E050 2019-04-03 20:21:14 23.5 21 24.9
0039E050 2019-04-03 19:48:54 23.6 20 24.9
0039E050 2019-04-03 19:16:34 23.8 19 24.9
0039E050 2019-04-03 18:44:18 23.9 18 24.9
0039E050 2019-04-03 18:12:02 23.7 18 24.8
0039E050 2019-04-03 17:39:46 23.2 18 24.7
0039E050 2019-04-03 17:07:31 23 18 24.8
0039E050 2019-04-03 16:35:16 23 18 24.8
0039E050 2019-04-03 16:03:01 23 18 24.8
0039E050 2019-04-03 15:30:47 23 18 24.9
0039E050 2019-04-03 14:58:31 23 18 24.8
0039E050 2019-04-03 14:26:13 23.1 18 24.7
0039E050 2019-04-03 13:53:54 23.1 18 24.9
0039E050 2019-04-03 13:21:34 23.1 19 24.8
0039E050 2019-04-03 12:49:15 23.2 19 24.8
0039E050 2019-04-03 12:16:57 23.2 19 24.8
0039E050 2019-04-03 11:44:39 23.2 20 24.7
0039E050 2019-04-03 11:12:21 23.2 21 24.6
0039E050 2019-04-03 10:40:03 23.3 22 24.7
0039E050 2019-04-03 10:07:44 23.3 24 24.7
0039E050 2019-04-03 09:35:25 23.2 26 24.5
0039E050 2019-04-03 09:03:05 23.1 19 24.5
0039E050 2019-04-03 08:30:46 23.2 19 24.6
0039E050 2019-04-03 07:58:27 23.2 19 24.8
0039E050 2019-04-03 07:26:08 23.2 19 24.8
0039E050 2019-04-03 06:53:49 23.2 19 24.7
0039E050 2019-04-03 06:21:30 23.2 19 24.7
0039E050 2019-04-03 05:49:10 23.2 19 24.8
0039E050 2019-04-03 05:16:49 23.2 20 24.7
0039E050 2019-04-03 04:44:30 23.3 19 24.7
0039E050 2019-04-03 04:12:10 23.3 19 24.8
0039E050 2019-04-03 03:39:50 23.4 19 24.7
0039E050 2019-04-03 03:07:31 23.4 20 24.7
0039E050 2019-04-03 02:35:12 23.5 21 24.7
0039E050 2019-04-03 02:02:57 23.6 21 24.6
0039E050 2019-04-03 01:30:38 23.7 20 24.8
0039E050 2019-04-03 00:57:45 23.9 20 24.7
0039E050 2019-04-03 00:25:26 23.9 21 24.7
0039E050 2019-04-02 23:53:07 23.9 21 24.7
0039E050 2019-04-02 23:20:48 23.9 22 24.7
0039E050 2019-04-02 22:48:30 23.9 22 24.6
0039E050 2019-04-02 22:16:11 23.8 22 24.7
0039E050 2019-04-02 21:43:52 23.8 21 24.7
0039E050 2019-04-02 21:11:33 23.8 21 24.6
0039E050 2019-04-02 20:39:15 23.8 21 24.5
0039E050 2019-04-02 20:06:56 23.8 21 24.6
0039E050 2019-04-02 19:34:37 23.8 21 24.6
0039E050 2019-04-02 19:02:18 23.8 21 24.5
0039E050 2019-04-02 18:29:58 23.8 20 24.5
0039E050 2019-04-02 17:57:39 23.7 19 24.4
0039E050 2019-04-02 17:25:21 23.2 20 24.7
0039E050 2019-04-02 16:53:03 23.1 20 24.7
0039E050 2019-04-02 16:20:47 23 20 24.8
0039E050 2019-04-02 15:48:29 23.1 21 24.9
0039E050 2019-04-02 15:16:09 23.1 21 24.8
0039E050 2019-04-02 14:43:49 23.1 22 24.8
0039E050 2019-04-02 14:11:30 23.1 22 24.7
0039E050 2019-04-02 13:39:14 23.1 23 24.7
0039E050 2019-04-02 13:06:56 23.1 23 24.7
0039E050 2019-04-02 12:34:38 23.2 23 24.7
0039E050 2019-04-02 12:02:20 23.2 24 24.5
0039E050 2019-04-02 11:30:02 23.2 24 24.5
0039E050 2019-04-02 10:57:42 23.3 25 24.4
0039E050 2019-04-02 10:25:22 23.3 26 24.9
0039E050 2019-04-02 09:53:02 23.3 27 24.8
0039E050 2019-04-02 09:20:40 23.3 28 24.9
0039E050 2019-04-02 08:48:20 23.2 23 25
0039E050 2019-04-02 08:16:00 23.2 23 25
0039E050 2019-04-02 07:43:40 23.2 23 25
0039E050 2019-04-02 07:11:21 23.2 22 25
0039E050 2019-04-02 06:39:02 23.2 22 24.9
0039E050 2019-04-02 06:06:47 23.2 22 24.8
0039E050 2019-04-02 05:34:30 23.3 22 24.9
0039E050 2019-04-02 05:02:11 23.3 22 24.9
0039E050 2019-04-02 04:29:53 23.3 22 24.9
0039E050 2019-04-02 03:57:34 23.4 22 24.7
0039E050 2019-04-02 03:25:14 23.4 23 24.7
0039E050 2019-04-02 02:52:54 23.5 22 24.7
0039E050 2019-04-02 02:20:35 23.6 22 25.1
0039E050 2019-04-02 01:48:16 23.8 21 25.1
0039E050 2019-04-02 01:15:57 23.9 20 25
0039E050 2019-04-02 00:43:38 23.9 21 25
0039E050 2019-04-02 00:11:19 23.9 20 25
0039E050 2019-04-01 23:39:00 23.9 20 25.1
0039E050 2019-04-01 23:06:40 23.9 21 25
0039E050 2019-04-01 22:34:22 23.8 20 25.1
0039E050 2019-04-01 22:01:31 23.8 20 25.3
0039E050 2019-04-01 21:29:12 23.7 19 24.9
0039E050 2019-04-01 20:56:52 23.6 18 25
0039E050 2019-04-01 20:24:33 23.5 17 25
0039E050 2019-04-01 19:52:14 23.5 17 24.9
0039E050 2019-04-01 19:19:55 23.5 16 24.9
0039E050 2019-04-01 18:47:35 23.4 16 24.9
0039E050 2019-04-01 18:15:15 23.3 16 24.9
0039E050 2019-04-01 17:42:56 23.2 17 25.1
0039E050 2019-04-01 17:10:38 23 16 25
0039E050 2019-04-01 16:38:18 23 15 25
0039E050 2019-04-01 16:05:58 23 16 24.9
0039E050 2019-04-01 15:33:39 23 16 24.9
0039E050 2019-04-01 15:01:20 23 16 24.9
0039E050 2019-04-01 14:29:01 23.1 17 25
0039E050 2019-04-01 13:56:43 23.1 17 24.9
0039E050 2019-04-01 13:24:23 23.1 18 24.4
0039E050 2019-04-01 12:52:03 23.2 18 24.4
0039E050 2019-04-01 12:19:44 23.2 19 24.5
0039E050 2019-04-01 11:47:25 23.2 20 24.6
0039E050 2019-04-01 11:15:06 23.3 21 24.7
0039E050 2019-04-01 10:42:48 23.3 22 25
0039E050 2019-04-01 10:10:31 23.3 23 25.1
0039E050 2019-04-01 09:38:13 23.3 25 25.2
0039E050 2019-04-01 09:05:56 23.3 27 25.2
0039E050 2019-04-01 08:33:37 23.2 23 25.1
0039E050 2019-04-01 08:01:16 23.2 24 25.1
0039E050 2019-04-01 07:28:56 23.2 24 25.1
0039E050 2019-04-01 06:56:37 23.3 25 25
0039E050 2019-04-01 06:24:16 23.3 25 25
0039E050 2019-04-01 05:51:56 23.4 25 25
0039E050 2019-04-01 05:19:35 23.4 26 24.9
0039E050 2019-04-01 04:47:15 23.5 26 25
0039E050 2019-04-01 04:14:54 23.6 25 24.9
0039E050 2019-04-01 03:42:34 23.7 25 25.1
0039E050 2019-04-01 03:10:12 23.8 24 25.1
0039E050 2019-04-01 02:37:52 23.9 22 25.2
0039E050 2019-04-01 02:05:32 23.9 21 25.1
0039E050 2019-04-01 01:33:14 23.9 20 25.1
0039E050 2019-04-01 01:00:54 23.8 20 25.2
0039E050 2019-04-01 00:28:33 23.9 21 25.4
0039E050 2019-03-31 23:56:13 23.9 22 25.4
0039E050 2019-03-31 23:23:53 23.9 24 25.5
0039E050 2019-03-31 22:51:34 23.9 27 25.3
0039E050 2019-03-31 22:19:14 23.9 23 25.2
0039E050 2019-03-31 21:46:55 23.9 21 25.1
0039E050 2019-03-31 21:14:37 23.9 20 25.1
0039E050 2019-03-31 20:42:18 23.9 20 25
0039E050 2019-03-31 20:10:01 23.9 21 25.2
0039E050 2019-03-31 19:37:42 23.9 21 25.1
0039E050 2019-03-31 19:04:48 24 22 25.3
0039E050 2019-03-31 18:32:27 23.8 23 25.4
0039E050 2019-03-31 18:00:06 23.5 24 25.5
0039E050 2019-03-31 17:27:44 23.4 24 25.5
0039E050 2019-03-31 16:55:22 23.5 25 25.5
0039E050 2019-03-31 16:23:03 23.6 25 25.4
0039E050 2019-03-31 15:50:44 23.7 26 25.4
0039E050 2019-03-31 15:18:25 23.7 27 25.4
0039E050 2019-03-31 14:46:05 23.7 28 25.4
0039E050 2019-03-31 14:13:46 23.7 29 25.3
0039E050 2019-03-31 13:41:29 23.5 26 25.4
0039E050 2019-03-31 13:09:08 23.5 26 25.3
0039E050 2019-03-31 12:36:49 23.3 27 25.3
0039E050 2019-03-31 12:04:29 23.2 27 25.2
0039E050 2019-03-31 11:32:10 23.2 26 25.2
0039E050 2019-03-31 10:59:52 23.2 26 25.1
0039E050 2019-03-31 10:27:34 23.2 26 25
0039E050 2019-03-31 09:55:14 23.2 26 25
0039E050 2019-03-31 09:22:53 23.2 26 25
0039E050 2019-03-31 08:50:32 23.2 25 25.4
0039E050 2019-03-31 08:18:11 23.2 26 25.3
0039E050 2019-03-31 07:45:50 23.3 26 25.4
0039E050 2019-03-31 07:13:29 23.3 26 25.5
0039E050 2019-03-31 06:41:08 23.4 27 25.9
0039E050 2019-03-31 06:08:50 23.4 27 25.9
0039E050 2019-03-31 05:36:29 23.5 27 25.8
0039E050 2019-03-31 05:04:12 23.6 27 25.6
0039E050 2019-03-31 04:31:55 23.7 27 25.7
0039E050 2019-03-31 02:59:39 23.8 27 25.7
0039E050 2019-03-31 02:27:24 23.9 27 25.8
0039E050 2019-03-31 01:55:09 24 27 25.8
0039E050 2019-03-31 01:22:53 24 27 25.9
0039E050 2019-03-31 00:50:33 24.1 28 25.7
0039E050 2019-03-31 00:18:15 24.1 27 25.6
0039E050 2019-03-30 23:45:57 24.1 27 25.6
0039E050 2019-03-30 23:13:42 24.1 28 25.6
0039E050 2019-03-30 22:41:24 24.1 27 25.7
0039E050 2019-03-30 22:09:07 24 27 25.8
0039E050 2019-03-30 21:36:46 24.1 26 25.9
0039E050 2019-03-30 21:04:27 24.1 26 25.9
0039E050 2019-03-30 20:32:06 24.1 26 25.8
0039E050 2019-03-30 19:59:47 24.1 26 25.8
0039E050 2019-03-30 19:27:28 24.1 26 25.7
0039E050 2019-03-30 18:55:09 24.1 26 25.7
0039E050 2019-03-30 18:22:51 24.1 26 25.4
0039E050 2019-03-30 17:50:33 24.1 26 25.4
0039E050 2019-03-30 17:18:14 24 26 25.5
0039E050 2019-03-30 16:45:55 24 26 25.3
0039E050 2019-03-30 16:13:40 24.1 25 25
0039E050 2019-03-30 15:41:23 24.1 25 25.1
0039E050 2019-03-30 15:08:33 24.1 26 25.3
0039E050 2019-03-30 14:36:14 24.1 26 25.2
0039E050 2019-03-30 14:03:58 24.1 27 25.2
0039E050 2019-03-30 13:31:42 24 23 25.3
0039E050 2019-03-30 12:59:23 23.9 25 25.3
0039E050 2019-03-30 12:27:06 23.8 26 25.2
0039E050 2019-03-30 11:54:49 23.6 27 25.3
0039E050 2019-03-30 11:22:31 23.5 27 25.4
0039E050 2019-03-30 10:50:12 23.5 26 25.5
0039E050 2019-03-30 10:17:52 23.5 25 25.4
0039E050 2019-03-30 09:45:32 23.6 26 25.5
0039E050 2019-03-30 09:13:11 23.6 26 25.4
0039E050 2019-03-30 08:40:53 23.6 26 25.4
0039E050 2019-03-30 08:08:32 23.7 25 25.4
0039E050 2019-03-30 07:36:13 23.7 25 25.4
0039E050 2019-03-30 07:03:53 23.8 25 25.5
0039E050 2019-03-30 06:31:34 23.9 25 25.7
0039E050 2019-03-30 05:59:15 24 25 25.8
0039E050 2019-03-30 05:26:57 24.1 25 25.7
0039E050 2019-03-30 04:54:41 24.2 25 25.9
0039E050 2019-03-30 04:22:23 24.4 25 25.7
0039E050 2019-03-30 03:50:05 24.5 25 25.7
0039E050 2019-03-30 03:17:48 24.4 26 25.7
0039E050 2019-03-30 02:45:29 24.4 26 25.6
0039E050 2019-03-30 02:13:10 24.4 26 25.5
0039E050 2019-03-30 01:40:52 24.4 26 25.4
0039E050 2019-03-30 01:08:32 24.3 26 25.4
0039E050 2019-03-30 00:36:12 24.2 26 25.3
0039E050 2019-03-30 00:03:52 24.2 26 25.3
0039E050 2019-03-29 23:31:32 24.2 26 25.2
0039E050 2019-03-29 22:59:14 24.2 26 25.3
0039E050 2019-03-29 22:26:54 24.2 26 25.3
0039E050 2019-03-29 21:54:36 24.2 26 25.3
0039E050 2019-03-29 21:22:17 24.2 26 25.3
0039E050 2019-03-29 20:49:58 24.3 26 25.3
0039E050 2019-03-29 20:17:39 24.3 27 25.2
0039E050 2019-03-29 19:45:20 24.3 27 25
0039E050 2019-03-29 19:13:00 24.3 26 25
0039E050 2019-03-29 18:40:41 24.3 26 25
0039E050 2019-03-29 18:08:22 24.3 27 25.1
0039E050 2019-03-29 17:36:05 24.3 27 25
0039E050 2019-03-29 17:03:45 24.2 27 24.8
0039E050 2019-03-29 16:31:25 24.1 27 24.7
0039E050 2019-03-29 15:59:05 23.9 28 25.1
0039E050 2019-03-29 15:26:45 23.9 28 25
0039E050 2019-03-29 14:54:25 23.9 27 25
0039E050 2019-03-29 14:22:06 23.8 27 25
0039E050 2019-03-29 13:49:46 23.8 27 25
0039E050 2019-03-29 13:17:28 23.8 27 25.1
0039E050 2019-03-29 12:45:10 23.7 28 25.2
0039E050 2019-03-29 12:12:19 23.7 28 25.3
0039E050 2019-03-29 11:40:03 23.7 30 25.4
0039E050 2019-03-29 11:07:43 23.6 31 25.4
0039E050 2019-03-29 10:35:23 23.5 27 25.5
0039E050 2019-03-29 10:03:05 23.5 25 25.5
0039E050 2019-03-29 09:30:44 23.5 25 25.5
0039E050 2019-03-29 08:58:25 23.5 25 25.5
0039E050 2019-03-29 08:26:05 23.5 25 25.4
0039E050 2019-03-29 07:53:45 23.5 25 25.4
0039E050 2019-03-29 07:21:25 23.5 25 25.5
0039E050 2019-03-29 06:49:05 23.5 25 25.5
0039E050 2019-03-29 06:16:46 23.5 25 25.6
0039E050 2019-03-29 05:44:27 23.6 25 25.5
0039E050 2019-03-29 05:12:07 23.6 25 25.8
0039E050 2019-03-29 04:39:47 23.6 25 25.7
0039E050 2019-03-29 04:07:29 23.7 25 25.7
0039E050 2019-03-29 03:35:11 23.8 25 25.7
0039E050 2019-03-29 03:02:53 23.9 25 25.3
0039E050 2019-03-29 02:30:34 24.1 25 25.3
0039E050 2019-03-29 01:58:15 24.1 25 25.4
0039E050 2019-03-29 01:25:58 24.2 25 25.4
0039E050 2019-03-29 00:53:36 24.2 25 25.3
0039E050 2019-03-29 00:21:16 24.1 25 25.1
0039E050 2019-03-28 23:48:56 24.1 25 25.2
0039E050 2019-03-28 23:16:37 24.1 25 25
0039E050 2019-03-28 22:44:18 24 25 24.9
0039E050 2019-03-28 22:11:59 24 25 25
0039E050 2019-03-28 21:39:40 24 25 25
0039E050 2019-03-28 21:07:23 23.9 25 25
0039E050 2019-03-28 20:35:04 23.9 25 25.1
0039E050 2019-03-28 20:02:45 23.8 25 25
0039E050 2019-03-28 19:30:26 23.7 25 25.1
0039E050 2019-03-28 18:58:05 23.6 25 25.2
0039E050 2019-03-28 18:25:46 23.5 24 25.2
0039E050 2019-03-28 17:53:26 23.5 23 25.1
0039E050 2019-03-28 17:21:06 23.5 23 25.1
0039E050 2019-03-28 16:48:48 23.5 23 25.2
0039E050 2019-03-28 16:16:30 23.4 23 25.2
0039E050 2019-03-28 15:44:14 23.4 23 24.8
0039E050 2019-03-28 15:11:55 23.5 23 24.8
0039E050 2019-03-28 14:39:35 23.5 23 25
0039E050 2019-03-28 14:07:16 23.5 23 25.1
0039E050 2019-03-28 13:34:57 23.6 23 25.1
0039E050 2019-03-28 13:02:39 23.6 23 25.2
0039E050 2019-03-28 12:30:21 23.6 23 25.2
0039E050 2019-03-28 11:58:01 23.7 23 25.4
0039E050 2019-03-28 11:25:46 23.7 23 25.4
0039E050 2019-03-28 10:53:26 23.7 23 25.4
0039E050 2019-03-28 10:21:05 23.8 24 25.4
0039E050 2019-03-28 09:48:46 23.7 26 25.5
0039E050 2019-03-28 09:15:53 23.6 22 25.4
0039E050 2019-03-28 08:43:32 23.6 21 25.4
0039E050 2019-03-28 08:11:12 23.7 21 25.4
0039E050 2019-03-28 07:38:53 23.7 21 25.4
0039E050 2019-03-28 07:06:34 23.7 21 25.3
0039E050 2019-03-28 06:34:15 23.7 21 25.2
0039E050 2019-03-28 06:01:54 23.7 21 25.2
0039E050 2019-03-28 05:29:35 23.7 21 25.2
0039E050 2019-03-28 04:57:14 23.7 21 25.3
0039E050 2019-03-28 04:24:53 23.8 21 25.2
0039E050 2019-03-28 03:52:33 23.8 22 25.1
0039E050 2019-03-28 03:20:13 23.9 22 25.1
0039E050 2019-03-28 02:47:53 24 22 25.1
0039E050 2019-03-28 02:15:35 24.1 22 25.1
0039E050 2019-03-28 01:43:18 24.2 22 25
0039E050 2019-03-28 01:10:58 24.2 22 24.9
0039E050 2019-03-28 00:38:38 24.3 22 24.8
0039E050 2019-03-28 00:06:21 24.3 22 24.8
0039E050 2019-03-27 23:33:59 24.3 22 24.7
0039E050 2019-03-27 23:01:40 24.2 21 24.6
0039E050 2019-03-27 22:29:20 24.2 21 24.6
0039E050 2019-03-27 21:57:00 24.2 21 24.6
0039E050 2019-03-27 21:24:40 24.1 20 24.6
0039E050 2019-03-27 20:52:21 24 20 24.6
0039E050 2019-03-27 20:20:01 24 20 24.8
0039E050 2019-03-27 19:47:41 23.9 20 24.7
0039E050 2019-03-27 19:15:22 23.7 20 24.8
0039E050 2019-03-27 18:43:02 23.6 20 24.8
0039E050 2019-03-27 18:10:43 23.7 20 25.2
0039E050 2019-03-27 17:38:24 23.7 19 25.1
0039E050 2019-03-27 17:06:04 23.7 18 25.1
0039E050 2019-03-27 16:33:46 23.7 17 25
0039E050 2019-03-27 16:01:27 23.6 17 25
0039E050 2019-03-27 15:29:07 23.6 17 25.1
0039E050 2019-03-27 14:56:47 23.6 17 25.2
0039E050 2019-03-27 14:24:28 23.6 16 25.5
0039E050 2019-03-27 13:52:09 23.6 16 25.5
0039E050 2019-03-27 13:19:50 23.6 16 25.5
0039E050 2019-03-27 12:47:32 23.6 16 25.6
0039E050 2019-03-27 12:15:14 23.7 16 25.5
0039E050 2019-03-27 11:42:57 23.7 16 25.5
0039E050 2019-03-27 11:10:42 23.7 16 25.6
0039E050 2019-03-27 10:38:25 23.7 17 25.6
0039E050 2019-03-27 10:06:05 23.7 18 25.6
0039E050 2019-03-27 09:33:46 23.7 20 25.7
0039E050 2019-03-27 09:01:26 23.6 15 25.8
0039E050 2019-03-27 08:29:06 23.6 15 25.9
0039E050 2019-03-27 07:56:47 23.6 15 26.1
0039E050 2019-03-27 07:24:28 23.6 15 26.2
0039E050 2019-03-27 06:52:11 23.6 15 26.1
0039E050 2019-03-27 06:19:24 23.6 15 26.2
0039E050 2019-03-27 05:47:09 23.6 15 26.1
0039E050 2019-03-27 05:14:53 23.6 15 25.8
0039E050 2019-03-27 04:42:36 23.6 14 25.9
0039E050 2019-03-27 04:10:19 23.7 14 26
0039E050 2019-03-27 03:38:04 23.8 14 26
0039E050 2019-03-27 03:05:46 23.9 14 25.9
0039E050 2019-03-27 02:33:29 23.9 14 25.8
0039E050 2019-03-27 02:01:13 24 14 25.7
0039E050 2019-03-27 01:28:55 24 14 25.5
0039E050 2019-03-27 00:56:37 24 13 25.5
0039E050 2019-03-27 00:24:19 24 14 25.6
0039E050 2019-03-26 23:52:01 24.1 13 25.5
0039E050 2019-03-26 23:19:43 24 14 25.5
0039E050 2019-03-26 22:47:25 24 14 25.8
0039E050 2019-03-26 22:15:07 24 14 25.8
0039E050 2019-03-26 21:42:49 23.9 14 25.9
0039E050 2019-03-26 21:10:32 23.9 13 25.8
0039E050 2019-03-26 20:38:14 23.9 13 26.1
0039E050 2019-03-26 20:05:58 23.8 13 26.2
0039E050 2019-03-26 19:33:40 23.8 13 26.1
0039E050 2019-03-26 19:01:24 23.8 13 25.9
0039E050 2019-03-26 18:29:08 23.8 13 25.8
0039E050 2019-03-26 17:56:51 23.9 12 25.8
0039E050 2019-03-26 17:24:34 24 13 25.9
0039E050 2019-03-26 16:52:16 23.7 13 25.7
0039E050 2019-03-26 16:19:58 23.4 13 25.7
0039E050 2019-03-26 15:47:41 23.3 13 25.7
0039E050 2019-03-26 15:15:23 23.3 13 25.6
0039E050 2019-03-26 14:43:05 23.3 13 25.7
0039E050 2019-03-26 14:10:47 23.3 13 25.8
0039E050 2019-03-26 13:38:30 23.3 13 25.9
0039E050 2019-03-26 13:06:12 23.3 13 26
0039E050 2019-03-26 12:33:55 23.4 13 25.9
0039E050 2019-03-26 12:01:37 23.4 13 25.9
0039E050 2019-03-26 11:29:19 23.4 14 26
0039E050 2019-03-26 10:57:02 23.5 14 26
0039E050 2019-03-26 10:24:46 23.5 16 26.1
0039E050 2019-03-26 09:52:29 23.5 18 26.1
0039E050 2019-03-26 09:20:12 23.5 20 25.9
0039E050 2019-03-26 08:47:55 23.4 16 25.8
0039E050 2019-03-26 08:15:39 23.4 17 26
0039E050 2019-03-26 07:43:23 23.4 17 26.1
0039E050 2019-03-26 07:11:05 23.4 18 25.7
0039E050 2019-03-26 06:38:47 23.4 18 25.6
0039E050 2019-03-26 06:06:29 23.4 18 25.6
0039E050 2019-03-26 05:34:11 23.5 18 25.5
0039E050 2019-03-26 05:01:52 23.5 18 25.4
0039E050 2019-03-26 04:29:35 23.6 18 25.4
0039E050 2019-03-26 03:57:17 23.7 18 25.4
0039E050 2019-03-26 03:24:27 23.8 19 25.4
0039E050 2019-03-26 02:52:10 23.9 19 25.4
0039E050 2019-03-26 02:19:50 24 19 25.5
0039E050 2019-03-26 01:47:33 24.1 18 25.6
0039E050 2019-03-26 01:15:13 24.1 19 25.5
0039E050 2019-03-26 00:42:55 24.2 19 25.4
0039E050 2019-03-26 00:10:36 24.3 20 25.5
0039E050 2019-03-25 23:38:17 24.3 20 25.6
0039E050 2019-03-25 23:05:59 24.3 20 25.6
0039E050 2019-03-25 22:33:41 24.4 21 25.7
0039E050 2019-03-25 22:01:24 24.4 21 25.6
0039E050 2019-03-25 21:29:06 24.4 22 25.5
0039E050 2019-03-25 20:56:48 24.4 21 25.5
0039E050 2019-03-25 20:24:31 24.2 22 25.5
0039E050 2019-03-25 19:52:13 23.8 21 25.6
0039E050 2019-03-25 19:19:55 23.6 21 25.3
0039E050 2019-03-25 18:47:38 23.4 22 25.4
0039E050 2019-03-25 18:15:20 23.3 22 25.7
0039E050 2019-03-25 17:43:02 23.3 22 25.8
0039E050 2019-03-25 17:10:48 23.4 21 25.8
0039E050 2019-03-25 16:38:32 23 21 25.7
0039E050 2019-03-25 16:06:13 22.9 21 25.8
0039E050 2019-03-25 15:33:55 22.9 22 25.8
0039E050 2019-03-25 15:01:37 22.9 22 25.8
0039E050 2019-03-25 14:29:20 22.9 22 25.8
0039E050 2019-03-25 13:57:03 22.9 22 25.8
0039E050 2019-03-25 13:24:45 23 22 25.8
0039E050 2019-03-25 12:52:27 23 21 25.9
0039E050 2019-03-25 12:20:08 23 21 25.9
0039E050 2019-03-25 11:47:48 23 23 25.8
0039E050 2019-03-25 11:15:30 23.1 23 25.8
0039E050 2019-03-25 10:43:13 23.1 24 25.8
0039E050 2019-03-25 10:10:55 23.1 25 25.7
0039E050 2019-03-25 09:38:38 23.1 26 25.7
0039E050 2019-03-25 09:06:20 23.1 28 25.7
0039E050 2019-03-25 08:34:02 23.1 22 25.6
0039E050 2019-03-25 08:01:44 23.1 22 25.7
0039E050 2019-03-25 07:29:25 23.1 22 25.8
0039E050 2019-03-25 06:57:06 23.1 22 25.7
0039E050 2019-03-25 06:24:47 23.2 22 25.7
0039E050 2019-03-25 05:52:28 23.2 22 25.5
0039E050 2019-03-25 05:20:10 23.3 22 25.5
0039E050 2019-03-25 04:47:52 23.5 22 25.1
0039E050 2019-03-25 04:15:34 23.6 22 25
0039E050 2019-03-25 03:43:15 23.6 23 24.9
0039E050 2019-03-25 03:10:56 23.7 23 24.9
0039E050 2019-03-25 02:38:38 23.7 23 24.9
0039E050 2019-03-25 02:06:23 23.7 23 24.8
0039E050 2019-03-25 01:34:09 23.7 22 24.8
0039E050 2019-03-25 01:01:55 23.7 23 24.8
0039E050 2019-03-25 00:29:03 23.7 23 24.8
0039E050 2019-03-24 23:56:43 23.6 23 24.6
0039E050 2019-03-24 23:24:23 23.6 23 24.4
0039E050 2019-03-24 22:52:04 23.7 22 24.4
0039E050 2019-03-24 22:19:45 23.6 23 24.5
0039E050 2019-03-24 21:47:25 23.6 22 24.4
0039E050 2019-03-24 21:15:07 23.6 22 24.3
0039E050 2019-03-24 20:42:48 23.6 21 24.3
0039E050 2019-03-24 20:10:29 23.6 21 24.2
0039E050 2019-03-24 19:38:11 23.6 19 24.2
0039E050 2019-03-24 19:05:53 23.6 19 24.2
0039E050 2019-03-24 18:33:35 23.5 19 24.1
0039E050 2019-03-24 18:01:18 23.5 19 24.1
0039E050 2019-03-24 17:29:00 23.5 18 24.1
0039E050 2019-03-24 16:56:42 23.5 19 24.1
0039E050 2019-03-24 16:24:23 23.3 19 24.1
0039E050 2019-03-24 15:52:05 23.3 20 24.2
0039E050 2019-03-24 15:19:47 23.3 21 24.2
0039E050 2019-03-24 14:47:29 23.2 22 24.3
0039E050 2019-03-24 14:15:11 23.1 18 24.5
0039E050 2019-03-24 13:42:53 23 18 24.5
0039E050 2019-03-24 13:10:34 23 18 24.5
0039E050 2019-03-24 12:38:15 22.9 19 24.6
0039E050 2019-03-24 12:05:57 22.9 18 24.7
0039E050 2019-03-24 11:33:38 23 18 24.9
0039E050 2019-03-24 11:01:20 23 19 24.8
0039E050 2019-03-24 10:29:04 23 19 24.9
0039E050 2019-03-24 09:56:43 23 20 24.9
0039E050 2019-03-24 09:24:25 23 20 25
0039E050 2019-03-24 08:52:08 23 20 25
0039E050 2019-03-24 08:19:51 23 21 25.1
0039E050 2019-03-24 07:47:34 23.1 21 25.2
0039E050 2019-03-24 07:15:17 23.1 21 25.1
0039E050 2019-03-24 06:43:01 23.2 22 25.2
0039E050 2019-03-24 06:10:45 23.3 22 25.2
0039E050 2019-03-24 05:38:28 23.4 22 25.2
0039E050 2019-03-24 05:06:11 23.5 23 25.1
0039E050 2019-03-24 04:33:53 23.7 23 25.1
0039E050 2019-03-24 04:01:36 23.8 24 25.1
0039E050 2019-03-24 03:29:19 23.8 24 25
0039E050 2019-03-24 02:57:02 23.8 24 25.1
0039E050 2019-03-24 02:24:45 23.9 24 25.2
0039E050 2019-03-24 01:52:28 23.9 25 25.3
0039E050 2019-03-24 01:20:12 23.9 25 25.3
0039E050 2019-03-24 00:47:55 23.8 25 25.3
0039E050 2019-03-24 00:15:38 23.8 25 25.3
0039E050 2019-03-23 23:43:21 23.7 25 25.2
0039E050 2019-03-23 23:11:04 23.7 25 25.2
0039E050 2019-03-23 22:38:47 23.8 25 25.1
0039E050 2019-03-23 22:06:29 23.8 25 25.1
0039E050 2019-03-23 21:33:39 23.9 26 25.2
0039E050 2019-03-23 21:01:22 23.9 26 25.2
0039E050 2019-03-23 20:29:07 23.8 27 25.1
0039E050 2019-03-23 19:56:48 23.8 27 25.1
0039E050 2019-03-23 19:24:30 23.8 27 25.1
0039E050 2019-03-23 18:52:11 23.8 27 25
0039E050 2019-03-23 18:19:53 23.8 28 24.9
0039E050 2019-03-23 17:47:35 23.8 28 24.8
0039E050 2019-03-23 17:15:17 23.7 28 24.9
0039E050 2019-03-23 16:42:58 23.6 29 24.9
0039E050 2019-03-23 16:10:40 23.5 32 24.9
0039E050 2019-03-23 15:38:22 23.3 26 25.1
0039E050 2019-03-23 15:06:03 23.2 26 25
0039E050 2019-03-23 14:33:44 23 27 25.2
0039E050 2019-03-23 14:01:25 22.9 26 25.1
0039E050 2019-03-23 13:29:06 22.9 25 25.2
0039E050 2019-03-23 12:56:46 22.9 25 25.1
0039E050 2019-03-23 12:24:27 22.9 24 25.1
0039E050 2019-03-23 11:52:07 22.9 23 25
0039E050 2019-03-23 11:19:48 22.9 22 25.1
0039E050 2019-03-23 10:47:29 23 21 25.2
0039E050 2019-03-23 10:15:10 22.9 20 25.2
0039E050 2019-03-23 09:42:51 23 20 25.1
0039E050 2019-03-23 09:10:32 23 20 25.2
0039E050 2019-03-23 08:38:13 23.1 21 25.2
0039E050 2019-03-23 08:05:55 23.1 22 25.1
0039E050 2019-03-23 07:33:35 23.2 23 25.1
0039E050 2019-03-23 07:01:16 23.3 23 25.1
0039E050 2019-03-23 06:28:56 23.4 25 25.1
0039E050 2019-03-23 05:56:37 23.4 25 25.1
0039E050 2019-03-23 05:24:18 23.5 27 25.1
0039E050 2019-03-23 04:52:01 23.7 28 25.1
0039E050 2019-03-23 04:19:41 23.8 29 25.3
0039E050 2019-03-23 03:47:22 23.8 31 25.2
0039E050 2019-03-23 03:15:03 23.8 32 25.2
0039E050 2019-03-23 02:42:44 23.7 31 25.3
0039E050 2019-03-23 02:10:27 23.7 31 25.1
0039E050 2019-03-23 01:38:08 23.7 31 25.1
0039E050 2019-03-23 01:05:50 23.6 31 25
0039E050 2019-03-23 00:33:31 23.6 30 24.9
0039E050 2019-03-23 00:01:14 23.6 30 24.7
0039E050 2019-03-22 23:28:59 23.6 29 24.7
0039E050 2019-03-22 22:56:42 23.6 26 24.7
0039E050 2019-03-22 22:24:22 23.6 23 24.8
0039E050 2019-03-22 21:52:03 23.5 25 24.9
0039E050 2019-03-22 21:19:46 23.5 26 24.7
0039E050 2019-03-22 20:47:32 23.5 27 24.7
0039E050 2019-03-22 20:15:16 23.5 26 24.8
0039E050 2019-03-22 19:42:57 23.7 27 24.7
0039E050 2019-03-22 19:10:39 23.7 27 24.7
0039E050 2019-03-22 18:37:47 23.6 26 24.7
0039E050 2019-03-22 18:05:28 23.5 25 24.8
0039E050 2019-03-22 17:33:10 23.4 18 24.8
0039E050 2019-03-22 17:00:51 23.3 17 24.8
0039E050 2019-03-22 16:28:31 23.2 18 24.8
0039E050 2019-03-22 15:56:12 23 19 24.8
0039E050 2019-03-22 15:23:53 22.9 20 24.8
0039E050 2019-03-22 14:51:34 22.8 19 24.8
0039E050 2019-03-22 14:19:14 22.8 16 24.8
0039E050 2019-03-22 13:46:54 22.8 16 24.7
0039E050 2019-03-22 13:14:33 22.8 17 24.8
0039E050 2019-03-22 12:42:13 22.9 17 24.8
0039E050 2019-03-22 12:09:54 22.9 17 24.8
0039E050 2019-03-22 11:37:35 22.9 17 24.8
0039E050 2019-03-22 11:05:15 22.9 18 24.8
0039E050 2019-03-22 10:32:57 22.9 18 25
0039E050 2019-03-22 10:00:37 22.9 18 24.9
0039E050 2019-03-22 09:28:18 22.9 18 24.8
0039E050 2019-03-22 08:56:00 22.9 18 24.8
0039E050 2019-03-22 08:23:44 22.9 19 24.8
0039E050 2019-03-22 07:51:25 22.9 19 24.7
0039E050 2019-03-22 07:19:08 23 19 24.7
0039E050 2019-03-22 06:46:49 23 19 24.7
0039E050 2019-03-22 06:14:29 23.1 19 24.6
0039E050 2019-03-22 05:42:09 23.2 19 24.6
0039E050 2019-03-22 05:09:50 23.3 19 24.5
0039E050 2019-03-22 04:37:30 23.5 19 24.4
0039E050 2019-03-22 04:05:10 23.6 19 24.6
0039E050 2019-03-22 03:32:50 23.7 20 24.6
0039E050 2019-03-22 03:00:31 23.7 21 24.5
0039E050 2019-03-22 02:28:12 23.8 22 24.6
0039E050 2019-03-22 01:55:52 23.7 23 24.6
0039E050 2019-03-22 01:23:34 23.8 25 24.6
0039E050 2019-03-22 00:51:17 23.8 28 24.6
0039E050 2019-03-22 00:18:57 23.8 25 24.7
0039E050 2019-03-21 23:46:38 23.8 25 24.8
0039E050 2019-03-21 23:14:19 23.8 27 24.8
0039E050 2019-03-21 22:41:59 23.8 27 24.8
0039E050 2019-03-21 22:09:40 23.8 28 24.9
0039E050 2019-03-21 21:37:21 23.8 28 24.9
0039E050 2019-03-21 21:05:05 23.8 28 24.9
0039E050 2019-03-21 20:32:49 23.8 28 24.8
0039E050 2019-03-21 20:00:33 23.8 28 24.9
0039E050 2019-03-21 19:28:17 23.8 27 24.8
0039E050 2019-03-21 18:56:01 23.8 27 24.9
0039E050 2019-03-21 18:23:46 23.7 27 25.2
0039E050 2019-03-21 17:51:30 23.7 28 25.1
0039E050 2019-03-21 17:19:15 23.5 29 25.1
0039E050 2019-03-21 16:46:58 23.3 29 25.2
0039E050 2019-03-21 16:14:42 23.2 27 25.1
0039E050 2019-03-21 15:41:52 23.2 28 25.4
0039E050 2019-03-21 15:09:35 23.2 29 25.3
0039E050 2019-03-21 14:37:18 23.1 30 25.3
0039E050 2019-03-21 14:05:00 23.1 26 25.3
0039E050 2019-03-21 13:32:42 23.1 25 25.3
0039E050 2019-03-21 13:00:24 23.1 25 25.3
0039E050 2019-03-21 12:28:06 23.1 25 25.2
0039E050 2019-03-21 11:55:48 23.1 24 25.2
0039E050 2019-03-21 11:23:30 23.1 24 25.2
0039E050 2019-03-21 10:51:11 23.2 24 25.2
0039E050 2019-03-21 10:18:54 23.2 24 25.3
0039E050 2019-03-21 09:46:34 23.2 24 25.3
0039E050 2019-03-21 09:14:19 23.2 23 25.3
0039E050 2019-03-21 08:42:02 23.3 23 25.3
0039E050 2019-03-21 08:09:44 23.3 23 25.3
0039E050 2019-03-21 07:37:26 23.3 23 25.4
0039E050 2019-03-21 07:05:07 23.4 23 25.3
0039E050 2019-03-21 06:32:49 23.6 23 25.3
0039E050 2019-03-21 06:00:30 23.7 23 25.3
0039E050 2019-03-21 05:28:13 23.8 23 25.1
0039E050 2019-03-21 04:55:54 23.9 23 25.1
0039E050 2019-03-21 04:23:36 23.9 23 25.1
0039E050 2019-03-21 03:51:17 23.9 23 25.3
0039E050 2019-03-21 03:18:59 23.8 23 25.3
0039E050 2019-03-21 02:46:41 23.9 23 25.3
0039E050 2019-03-21 02:14:21 23.9 24 25.1
0039E050 2019-03-21 01:42:04 24 24 25.1
0039E050 2019-03-21 01:09:44 24 24 25
0039E050 2019-03-21 00:37:25 24.1 24 25.1
0039E050 2019-03-21 00:05:08 24.2 25 25.1
0039E050 2019-03-20 23:32:49 24.2 26 25.1
0039E050 2019-03-20 23:00:32 23.9 26 25.2
0039E050 2019-03-20 22:28:13 23.6 25 25.1
0039E050 2019-03-20 21:55:53 23.5 24 25
0039E050 2019-03-20 21:23:35 23.6 24 25
0039E050 2019-03-20 20:51:17 23.6 25 24.9
0039E050 2019-03-20 20:18:59 23.6 25 24.9
0039E050 2019-03-20 19:46:42 23.5 25 24.9
0039E050 2019-03-20 19:14:25 23.5 25 24.7
0039E050 2019-03-20 18:42:07 23.4 25 24.7
0039E050 2019-03-20 18:09:48 23.3 25 24.7
0039E050 2019-03-20 17:37:35 23.1 25 24.8
0039E050 2019-03-20 17:05:12 23 25 24.7
0039E050 2019-03-20 16:32:52 23 25 24.6
0039E050 2019-03-20 16:00:33 23 24 24.6
0039E050 2019-03-20 15:28:13 23 23 24.7
0039E050 2019-03-20 14:55:54 23.1 23 24.7
0039E050 2019-03-20 14:23:34 23.1 23 24.5
0039E050 2019-03-20 13:51:16 23 25 24.5
0039E050 2019-03-20 13:19:00 23 27 24.5
0039E050 2019-03-20 12:46:12 23.1 28 24.5
0039E050 2019-03-20 12:13:55 22.9 28 24.6
0039E050 2019-03-20 11:41:38 22.9 24 24.5
0039E050 2019-03-20 11:09:21 22.9 23 24.5
0039E050 2019-03-20 10:37:04 22.9 23 24.4
0039E050 2019-03-20 10:04:47 22.9 23 24.6
0039E050 2019-03-20 09:32:29 22.9 24 25
0039E050 2019-03-20 09:00:12 23 25 25.2
0039E050 2019-03-20 08:27:54 23 26 25.2
0039E050 2019-03-20 07:55:36 23 27 25.2
0039E050 2019-03-20 07:23:18 23.1 28 25.3
0039E050 2019-03-20 06:51:01 23.2 29 25.3
0039E050 2019-03-20 06:18:43 23.2 31 25.5
0039E050 2019-03-20 05:46:25 23.4 31 25.5
0039E050 2019-03-20 05:14:07 23.5 30 25.5
0039E050 2019-03-20 04:41:49 23.6 31 25.5
0039E050 2019-03-20 04:09:30 23.7 30 25.7
0039E050 2019-03-20 03:37:12 23.8 31 25.8
0039E050 2019-03-20 03:04:54 23.8 30 25.8
0039E050 2019-03-20 02:32:35 23.7 30 25.8
0039E050 2019-03-20 02:00:17 23.7 31 25.8
0039E050 2019-03-20 01:27:59 23.6 32 25.9
0039E050 2019-03-20 00:55:42 23.6 33 26.1
0039E050 2019-03-20 00:23:24 23.6 32 26.1
0039E050 2019-03-19 23:51:07 23.6 30 26.1
0039E050 2019-03-19 23:18:49 23.6 26 26
0039E050 2019-03-19 22:46:33 23.7 26 26
0039E050 2019-03-19 22:14:17 23.7 26 26.1
0039E050 2019-03-19 21:42:00 23.7 26 26.1
0039E050 2019-03-19 21:09:43 23.7 26 26.1
0039E050 2019-03-19 20:37:25 23.7 26 26.1
0039E050 2019-03-19 20:05:05 23.7 26 25.8
0039E050 2019-03-19 19:32:47 23.7 27 25.8
0039E050 2019-03-19 19:00:28 23.8 26 25.8
0039E050 2019-03-19 18:28:09 23.8 26 25.8
0039E050 2019-03-19 17:55:52 23.8 27 25.8
0039E050 2019-03-19 17:23:33 23.8 27 25.7
0039E050 2019-03-19 16:51:16 23.8 28 25.7
0039E050 2019-03-19 16:18:58 23.8 29 25.6
0039E050 2019-03-19 15:46:39 23.7 26 25.9
0039E050 2019-03-19 15:14:20 23.6 26 25.9
0039E050 2019-03-19 14:42:03 23.6 26 25.8
0039E050 2019-03-19 14:09:44 23.6 26 25.7
0039E050 2019-03-19 13:37:26 23.5 26 25.7
0039E050 2019-03-19 13:05:08 23.4 26 25.6
0039E050 2019-03-19 12:32:50 23.3 26 25.5
0039E050 2019-03-19 12:00:32 23.2 27 25.4
0039E050 2019-03-19 11:28:15 23.1 28 25.3
0039E050 2019-03-19 10:55:57 23.1 28 25.2
0039E050 2019-03-19 10:23:41 23 29 25.3
0039E050 2019-03-19 09:50:52 23 31 25.3
0039E050 2019-03-19 09:18:32 23 26 25.4
0039E050 2019-03-19 08:46:13 23 26 25.4
0039E050 2019-03-19 08:13:53 23.1 27 25.4
0039E050 2019-03-19 07:41:34 23.1 27 25.3
0039E050 2019-03-19 07:09:15 23.2 26 25.3
0039E050 2019-03-19 06:36:59 23.3 26 25.4
0039E050 2019-03-19 06:04:42 23.4 26 25.4
0039E050 2019-03-19 05:32:23 23.5 25 25.5
0039E050 2019-03-19 05:00:06 23.5 25 25.5
0039E050 2019-03-19 04:27:48 23.5 25 25.5
0039E050 2019-03-19 03:55:31 23.5 26 25.6
0039E050 2019-03-19 03:23:12 23.6 25 25.6
0039E050 2019-03-19 02:50:55 23.7 25 25.3
0039E050 2019-03-19 02:18:36 23.7 26 25.4
0039E050 2019-03-19 01:46:17 23.7 26 25.3
0039E050 2019-03-19 01:14:00 23.7 25 25.3
0039E050 2019-03-19 00:41:41 23.7 25 25.3
0039E050 2019-03-19 00:09:23 23.7 25 25.3
0039E050 2019-03-18 23:37:08 23.7 25 25.2
0039E050 2019-03-18 23:04:53 23.7 25 25.3
0039E050 2019-03-18 22:32:37 23.7 25 25.3
0039E050 2019-03-18 22:00:21 23.6 25 25.2
0039E050 2019-03-18 21:28:01 23.5 25 25.2
0039E050 2019-03-18 20:55:42 23.4 25 25.3
0039E050 2019-03-18 20:23:22 23.3 26 25.3
0039E050 2019-03-18 19:51:04 23.1 26 25.1
0039E050 2019-03-18 19:18:44 22.9 27 25.1
0039E050 2019-03-18 18:46:23 22.8 25 25
0039E050 2019-03-18 18:14:04 22.8 24 25.1
0039E050 2019-03-18 17:41:46 22.8 24 25
0039E050 2019-03-18 17:09:27 22.9 24 24.9
0039E050 2019-03-18 16:37:10 22.9 24 24.8
0039E050 2019-03-18 16:04:50 22.9 24 24.6
0039E050 2019-03-18 15:32:30 22.9 24 24.7
0039E050 2019-03-18 15:00:10 23 24 24.7
0039E050 2019-03-18 14:27:50 22.9 24 24.6
0039E050 2019-03-18 13:55:29 23 25 24.5
0039E050 2019-03-18 13:23:11 23 25 24.4
0039E050 2019-03-18 12:50:52 23.1 25 24.3
0039E050 2019-03-18 12:18:32 23.1 25 24.4
0039E050 2019-03-18 11:46:13 23.2 25 24.3
0039E050 2019-03-18 11:13:55 23.2 26 24.5
0039E050 2019-03-18 10:41:35 23.2 28 24.5
0039E050 2019-03-18 10:09:18 23.2 29 24.6
0039E050 2019-03-18 09:36:59 23.2 25 24.5
0039E050 2019-03-18 09:04:41 23.2 26 24.5
0039E050 2019-03-18 08:32:24 23.3 26 24.6
0039E050 2019-03-18 08:00:07 23.3 26 24.5
0039E050 2019-03-18 07:27:48 23.4 26 24.3
0039E050 2019-03-18 06:54:58 23.4 26 24.5
0039E050 2019-03-18 06:22:43 23.5 26 24.4
0039E050 2019-03-18 05:50:20 23.7 26 24.4
0039E050 2019-03-18 05:18:00 23.8 26 24.3
0039E050 2019-03-18 04:45:41 23.9 26 24.3
0039E050 2019-03-18 04:13:21 23.9 27 24.4
0039E050 2019-03-18 03:41:02 23.9 27 24.5
0039E050 2019-03-18 03:08:42 24 28 24.4
0039E050 2019-03-18 02:36:22 23.9 28 24.3
0039E050 2019-03-18 02:04:01 23.9 28 24.3
0039E050 2019-03-18 01:31:43 23.9 29 24.3
0039E050 2019-03-18 00:59:25 23.9 27 24.4
0039E050 2019-03-18 00:27:07 24 27 24.3
0039E050 2019-03-17 23:54:48 23.9 27 24.4
0039E050 2019-03-17 23:22:29 24 27 24.3
0039E050 2019-03-17 22:50:13 24 26 24.5
0039E050 2019-03-17 22:17:53 23.9 26 24.4
0039E050 2019-03-17 21:45:34 24 26 24.3
0039E050 2019-03-17 21:13:13 24 26 24.3
0039E050 2019-03-17 20:40:53 23.9 27 24.4
0039E050 2019-03-17 20:08:34 23.9 27 24.5
0039E050 2019-03-17 19:36:14 23.9 25 24.5
0039E050 2019-03-17 19:03:54 23.8 26 24.7
0039E050 2019-03-17 18:31:35 23.7 25 24.6
0039E050 2019-03-17 17:59:16 23.5 25 24.7
0039E050 2019-03-17 17:26:57 23.3 24 24.7
0039E050 2019-03-17 16:54:39 23.4 23 24.9
0039E050 2019-03-17 16:22:19 23.4 24 24.9
0039E050 2019-03-17 15:49:59 23.5 24 25
0039E050 2019-03-17 15:17:42 23.6 26 25.2
0039E050 2019-03-17 14:45:21 23.6 26 25.1
0039E050 2019-03-17 14:13:02 23.3 29 25.1
0039E050 2019-03-17 13:40:42 23.2 26 25.5
0039E050 2019-03-17 13:08:24 23.1 26 25.5
0039E050 2019-03-17 12:36:04 23.1 26 25.5
0039E050 2019-03-17 12:03:49 23.1 27 25.6
0039E050 2019-03-17 11:31:24 23.2 27 25.6
0039E050 2019-03-17 10:59:04 23.2 27 25.7
0039E050 2019-03-17 10:26:45 23.2 27 25.7
0039E050 2019-03-17 09:54:27 23.2 28 25.8
0039E050 2019-03-17 09:22:07 23.2 28 25.7
0039E050 2019-03-17 08:49:47 23.3 28 25.7
0039E050 2019-03-17 08:17:28 23.3 28 25.8
0039E050 2019-03-17 07:45:11 23.4 29 25.9
0039E050 2019-03-17 07:12:52 23.5 29 25.9
0039E050 2019-03-17 06:40:34 23.6 29 25.9
0039E050 2019-03-17 06:08:16 23.7 29 25.9
0039E050 2019-03-17 05:35:59 23.9 29 25.9
0039E050 2019-03-17 05:03:41 24 30 26
0039E050 2019-03-17 04:31:25 24.2 33 26
0039E050 2019-03-17 04:30:09 24 34 26
0039E050 2019-03-17 03:57:52 24 34 25.9
0039E050 2019-03-17 03:25:33 24 33 26
0039E050 2019-03-17 02:53:15 24.1 34 25.9
0039E050 2019-03-17 02:20:58 24.1 34 25.8
0039E050 2019-03-17 01:48:42 24 34 25.8
0039E050 2019-03-17 01:16:25 24 34 25.8
0039E050 2019-03-17 00:44:10 24.1 33 25.5
0039E050 2019-03-17 00:11:54 24 31 25.5
0039E050 2019-03-16 23:39:37 24 26 25.5
0039E050 2019-03-16 23:07:21 24.1 26 25.5
0039E050 2019-03-16 22:35:00 24 26 25.5
0039E050 2019-03-16 22:02:41 24 26 25.4
0039E050 2019-03-16 21:30:25 24 27 25.5
0039E050 2019-03-16 20:58:08 24 27 25.3
0039E050 2019-03-16 20:25:52 23.9 25 25.5
0039E050 2019-03-16 19:53:36 24 25 25.4
0039E050 2019-03-16 19:21:20 24 25 25.3
0039E050 2019-03-16 18:49:02 23.9 25 25.2
0039E050 2019-03-16 18:16:47 23.8 26 25.2
0039E050 2019-03-16 17:44:29 23.8 26 25.1
0039E050 2019-03-16 17:12:12 23.7 27 25.3
0039E050 2019-03-16 16:39:55 23.6 26 25.2
0039E050 2019-03-16 16:07:40 23.5 26 25.2
0039E050 2019-03-16 15:35:21 23.3 26 25.2
0039E050 2019-03-16 15:03:05 23.2 27 25.1
0039E050 2019-03-16 14:30:49 23.1 27 25.1
0039E050 2019-03-16 13:58:32 23 25 24.9
0039E050 2019-03-16 13:26:17 23.1 25 24.9
0039E050 2019-03-16 12:54:01 23.1 25 24.9
0039E050 2019-03-16 12:21:44 23.1 25 24.8
0039E050 2019-03-16 11:49:27 23.1 25 24.8
0039E050 2019-03-16 11:17:11 23.1 25 24.9
0039E050 2019-03-16 10:44:55 23.2 25 24.9
0039E050 2019-03-16 10:12:40 23.2 25 25
0039E050 2019-03-16 09:40:21 23.2 25 24.9
0039E050 2019-03-16 09:08:05 23.2 25 24.9
0039E050 2019-03-16 08:35:48 23.3 25 24.9
0039E050 2019-03-16 08:03:31 23.3 25 24.9
0039E050 2019-03-16 07:31:12 23.4 25 24.9
0039E050 2019-03-16 06:58:55 23.4 25 24.8
0039E050 2019-03-16 06:26:37 23.5 25 24.8
0039E050 2019-03-16 05:54:19 23.6 25 24.9
0039E050 2019-03-16 05:22:01 23.7 25 24.9
0039E050 2019-03-16 04:49:44 23.8 25 24.9
0039E050 2019-03-16 04:17:27 23.9 25 24.9
0039E050 2019-03-16 03:45:10 24 25 24.8
0039E050 2019-03-16 03:12:53 24.1 25 24.9
0039E050 2019-03-16 02:40:35 24 25 24.8
0039E050 2019-03-16 02:08:16 24 26 24.9
0039E050 2019-03-16 01:35:25 24 25 25
0039E050 2019-03-16 01:03:07 24 25 25
0039E050 2019-03-16 00:30:49 23.9 25 25.2
0039E050 2019-03-15 23:58:31 23.8 25 25.2
0039E050 2019-03-15 23:26:12 23.8 26 25.3
0039E050 2019-03-15 22:53:54 23.8 26 25.3
0039E050 2019-03-15 22:21:36 23.9 26 25.3
0039E050 2019-03-15 21:49:17 23.8 26 25.3
0039E050 2019-03-15 21:16:59 23.8 26 25.2
0039E050 2019-03-15 20:44:42 23.9 26 25.2
0039E050 2019-03-15 20:12:25 23.9 26 25.2
0039E050 2019-03-15 19:40:07 24.1 26 25.1
0039E050 2019-03-15 19:07:51 24.1 26 25.1
0039E050 2019-03-15 18:35:32 24 27 25.1
0039E050 2019-03-15 18:03:13 23.9 25 25.2
0039E050 2019-03-15 17:30:56 23.8 25 25.2
0039E050 2019-03-15 16:58:38 23.8 25 25.1
0039E050 2019-03-15 16:26:20 23.7 26 25.2
0039E050 2019-03-15 15:54:01 23.7 26 25.2
0039E050 2019-03-15 15:21:43 23.7 26 25.1
0039E050 2019-03-15 14:49:25 23.5 27 25
0039E050 2019-03-15 14:17:08 23.4 27 25.1
0039E050 2019-03-15 13:44:51 23.3 27 25.1
0039E050 2019-03-15 13:12:34 23.3 28 25
0039E050 2019-03-15 12:40:15 23.3 29 25
0039E050 2019-03-15 12:07:54 23.2 25 24.9
0039E050 2019-03-15 11:35:36 23.2 25 25
0039E050 2019-03-15 11:03:16 23.2 24 24.9
0039E050 2019-03-15 10:30:57 23.2 25 24.9
0039E050 2019-03-15 09:58:39 23.2 25 24.8
0039E050 2019-03-15 09:26:20 23.2 25 25
0039E050 2019-03-15 08:54:04 23.2 24 25
0039E050 2019-03-15 08:21:46 23.2 24 25
0039E050 2019-03-15 07:49:31 23.2 25 25
0039E050 2019-03-15 07:17:15 23.3 25 25.1
0039E050 2019-03-15 06:45:00 23.3 25 25.2
0039E050 2019-03-15 06:12:42 23.4 25 25.3
0039E050 2019-03-15 05:40:25 23.4 25 25.2
0039E050 2019-03-15 05:08:06 23.5 24 25.1
0039E050 2019-03-15 04:35:47 23.5 24 24.9
0039E050 2019-03-15 04:03:29 23.7 24 25.1
0039E050 2019-03-15 03:31:13 23.8 24 25.1
0039E050 2019-03-15 02:58:56 23.9 24 25
0039E050 2019-03-15 02:26:41 23.9 24 25
0039E050 2019-03-15 01:54:26 23.9 24 25.4
0039E050 2019-03-15 01:22:08 23.9 24 25.4
0039E050 2019-03-15 00:49:49 23.9 24 25.3
0039E050 2019-03-15 00:17:31 24 24 25.3
0039E050 2019-03-14 23:45:13 24 24 25.3
0039E050 2019-03-14 23:12:57 24 25 25.3
0039E050 2019-03-14 22:40:07 23.9 25 25.3
0039E050 2019-03-14 22:07:53 23.9 26 25.6
0039E050 2019-03-14 21:35:36 23.9 27 25.6
0039E050 2019-03-14 21:03:19 23.8 24 25.6
0039E050 2019-03-14 20:31:02 23.8 24 25.5
0039E050 2019-03-14 19:58:45 23.7 24 25.3
0039E050 2019-03-14 19:26:29 23.6 24 25.3
0039E050 2019-03-14 18:54:13 23.6 24 25.3
0039E050 2019-03-14 18:21:55 23.5 24 25.3
0039E050 2019-03-14 17:49:36 23.4 24 25.3
0039E050 2019-03-14 17:17:17 23.3 25 25.2
0039E050 2019-03-14 16:44:58 23.1 25 25.3
0039E050 2019-03-14 16:12:40 22.9 27 25.4
0039E050 2019-03-14 15:40:21 22.7 24 25.7
0039E050 2019-03-14 15:08:02 22.7 23 25.7
0039E050 2019-03-14 14:35:44 22.7 23 25.7
0039E050 2019-03-14 14:03:27 22.8 23 25.7
0039E050 2019-03-14 13:31:08 22.7 23 25.6
0039E050 2019-03-14 12:58:49 22.8 23 25.2
0039E050 2019-03-14 12:26:31 22.8 23 25.2
0039E050 2019-03-14 11:54:18 22.8 23 25.2
0039E050 2019-03-14 11:21:56 22.9 23 25.2
0039E050 2019-03-14 10:49:38 22.9 24 25.2
0039E050 2019-03-14 10:17:20 22.9 25 25.3
0039E050 2019-03-14 09:45:01 23 27 25.4
0039E050 2019-03-14 09:12:45 22.9 23 25.4
0039E050 2019-03-14 08:40:27 22.9 23 25
0039E050 2019-03-14 04:54:16 23.3 22 25.3
0039E050 2019-03-14 04:21:56 23.4 22 25.3
0039E050 2019-03-14 03:49:38 23.6 21 25.4
0039E050 2019-03-14 03:17:20 23.7 21 25.2
0039E050 2019-03-14 02:45:02 23.9 21 25.1
0039E050 2019-03-14 02:12:45 23.9 21 25.1
0039E050 2019-03-14 01:40:28 24 21 24.9
0039E050 2019-03-14 01:08:10 24 22 25
0039E050 2019-03-14 00:35:52 24 22 25.1
0039E050 2019-03-14 00:03:33 24 23 25.2
0039E050 2019-03-13 23:31:16 23.9 20 25.2
0039E050 2019-03-13 22:58:57 23.9 20 25.3
0039E050 2019-03-13 22:26:37 23.9 18 25.2
0039E050 2019-03-13 21:54:18 23.9 18 25.2
0039E050 2019-03-13 21:21:59 23.8 17 25.2
0039E050 2019-03-13 20:49:42 23.8 17 25.1
0039E050 2019-03-13 20:17:24 23.7 17 25
0039E050 2019-03-13 19:44:33 23.6 17 25.2
0039E050 2019-03-13 19:12:15 23.4 18 25.2
0039E050 2019-03-13 18:39:56 23.1 17 25.2
0039E050 2019-03-13 18:07:41 22.9 16 25.2
0039E050 2019-03-13 17:35:19 22.9 15 25.1
0039E050 2019-03-13 17:03:00 22.9 15 25.1
0039E050 2019-03-13 16:30:44 22.9 15 25
0039E050 2019-03-13 15:58:26 22.9 15 25
0039E050 2019-03-13 15:26:08 22.9 15 24.9
0039E050 2019-03-13 14:53:52 22.9 15 25.2
0039E050 2019-03-13 14:21:35 22.9 15 25.2
0039E050 2019-03-13 13:49:16 22.9 15 25.3
0039E050 2019-03-13 13:16:58 22.9 15 25.2
0039E050 2019-03-13 12:44:39 23 15 25.2
0039E050 2019-03-13 12:12:21 23 15 25.2
0039E050 2019-03-13 11:40:02 23 16 25.3
0039E050 2019-03-13 11:07:45 23.1 16 25.2
0039E050 2019-03-13 10:35:28 23.1 17 25.4
0039E050 2019-03-13 10:03:12 23.1 18 25.3
0039E050 2019-03-13 09:30:59 23 16 25.4
0039E050 2019-03-13 08:58:46 23 16 25.5
0039E050 2019-03-13 08:26:32 23 15 25.6
0039E050 2019-03-13 07:54:17 23 14 25.6
0039E050 2019-03-13 07:21:59 23 14 25.7
0039E050 2019-03-13 06:49:42 23.1 14 25.7
0039E050 2019-03-13 06:17:26 23.1 14 25.6
0039E050 2019-03-13 05:45:08 23.1 14 25.6
0039E050 2019-03-13 05:12:50 23.2 15 25.6
0039E050 2019-03-13 04:40:32 23.2 15 25.7
0039E050 2019-03-13 04:08:14 23.3 15 25.7
0039E050 2019-03-13 03:35:56 23.3 15 25.7
0039E050 2019-03-13 03:03:37 23.5 15 25.7
0039E050 2019-03-13 02:31:19 23.6 15 25.7
0039E050 2019-03-13 01:59:01 23.7 15 25.7
0039E050 2019-03-13 01:26:44 23.9 15 25.5
0039E050 2019-03-13 00:54:25 23.9 16 25.5
0039E050 2019-03-13 00:22:04 23.9 16 25.5
0039E050 2019-03-12 23:49:45 23.9 16 25.5
0039E050 2019-03-12 23:17:26 23.9 17 25.5
0039E050 2019-03-12 22:45:07 23.9 17 25.5
0039E050 2019-03-12 22:12:48 24 16 25.4
0039E050 2019-03-12 21:40:28 24 16 25.5
0039E050 2019-03-12 21:08:09 24 16 25.4
0039E050 2019-03-12 20:35:50 23.9 16 25.5
0039E050 2019-03-12 20:03:30 23.9 16 25.5
0039E050 2019-03-12 19:31:11 23.9 16 25.4
0039E050 2019-03-12 18:58:53 23.9 16 25.3
0039E050 2019-03-12 18:26:33 24 16 25.3
0039E050 2019-03-12 17:54:14 24 16 25.3
0039E050 2019-03-12 17:21:54 23.9 17 25.4
0039E050 2019-03-12 16:49:02 24 17 25.5
0039E050 2019-03-12 16:16:42 23.9 17 25.5
0039E050 2019-03-12 15:44:24 24 17 25.5
0039E050 2019-03-12 15:12:05 24 18 25.6
0039E050 2019-03-12 14:39:47 23.9 19 25.6
0039E050 2019-03-12 14:07:28 23.8 22 25.7
0039E050 2019-03-12 13:35:09 23.7 16 25.7
0039E050 2019-03-12 13:02:50 23.8 17 25.6
0039E050 2019-03-12 12:30:31 23.7 17 25.6
0039E050 2019-03-12 11:58:13 23.5 18 25.6
0039E050 2019-03-12 11:25:55 23.4 20 25.5
0039E050 2019-03-12 10:53:38 23.2 21 25.6
0039E050 2019-03-12 10:21:23 23.2 16 25.6
0039E050 2019-03-12 09:49:09 23 16 25.6
0039E050 2019-03-12 09:16:55 23 15 25.6
0039E050 2019-03-12 08:44:37 23.1 15 25.5
0039E050 2019-03-12 08:12:19 23 15 25.7
0039E050 2019-03-12 07:40:01 23.1 14 25.5
0039E050 2019-03-12 07:07:44 23.1 14 25.6
0039E050 2019-03-12 06:35:25 23.2 14 25.6
0039E050 2019-03-12 06:03:07 23.2 15 25.6
0039E050 2019-03-12 05:30:47 23.3 15 25.6
0039E050 2019-03-12 04:58:29 23.4 15 26
0039E050 2019-03-12 04:26:11 23.5 15 25.8
0039E050 2019-03-12 03:53:55 23.6 15 25.9
0039E050 2019-03-12 03:21:38 23.7 16 25.8
0039E050 2019-03-12 02:49:21 23.7 16 25.8
0039E050 2019-03-12 02:17:03 23.7 16 25.8
0039E050 2019-03-12 01:44:45 23.8 16 26
0039E050 2019-03-12 01:12:27 23.9 16 26
0039E050 2019-03-12 00:40:10 24 18 25.9
0039E050 2019-03-12 00:07:51 23.9 18 25.9
0039E050 2019-03-11 23:35:35 23.9 18 26
0039E050 2019-03-11 23:03:18 23.8 17 26
0039E050 2019-03-11 22:31:00 23.8 17 26
0039E050 2019-03-11 21:58:44 23.7 17 26
0039E050 2019-03-11 21:26:28 23.6 18 26.1
0039E050 2019-03-11 20:54:14 23.4 18 26.1
0039E050 2019-03-11 20:21:58 23.3 17 26.1
0039E050 2019-03-11 19:49:39 23.1 18 26
0039E050 2019-03-11 19:17:22 23 21 26
0039E050 2019-03-11 18:45:07 22.9 15 26
0039E050 2019-03-11 18:12:49 22.9 14 25.8
0039E050 2019-03-11 17:40:31 22.9 14 25.9
0039E050 2019-03-11 17:08:13 23 14 25.9
0039E050 2019-03-11 16:35:55 22.9 14 26
0039E050 2019-03-11 16:03:37 23 14 25.7
0039E050 2019-03-11 15:31:20 23 14 25.8
0039E050 2019-03-11 14:59:02 23 14 25.7
0039E050 2019-03-11 14:26:45 23 15 25.9
0039E050 2019-03-11 13:53:55 23 15 25.9
0039E050 2019-03-11 13:21:38 23 14 25.5
0039E050 2019-03-11 12:49:23 23 14 25.5
0039E050 2019-03-11 12:17:09 23.1 14 25.6
0039E050 2019-03-11 11:44:54 23.1 14 25.6
0039E050 2019-03-11 11:12:38 23.1 15 25.7
0039E050 2019-03-11 10:40:20 23.1 15 25.7
0039E050 2019-03-11 10:08:03 23.2 16 25.7
0039E050 2019-03-11 09:35:44 23.2 18 25.7
0039E050 2019-03-11 09:03:25 23.2 19 25.6
0039E050 2019-03-11 08:31:07 23.2 17 25.7
0039E050 2019-03-11 07:58:48 23.2 17 25.7
0039E050 2019-03-11 07:26:30 23.2 17 25.7
0039E050 2019-03-11 06:54:10 23.4 17 25.7
0039E050 2019-03-11 06:21:52 23.4 16 25.7
0039E050 2019-03-11 05:49:34 23.6 16 25.7
0039E050 2019-03-11 05:17:15 23.7 16 25.7
0039E050 2019-03-11 04:44:56 23.9 16 25.6
0039E050 2019-03-11 04:12:38 24.1 16 25.6
0039E050 2019-03-11 03:40:20 24.2 17 25.4
0039E050 2019-03-11 03:08:01 24.2 17 25.3
0039E050 2019-03-11 02:35:44 24.2 17 25.2
0039E050 2019-03-11 02:03:25 24.2 17 25.2
0039E050 2019-03-11 01:31:07 24.2 18 25
0039E050 2019-03-11 00:58:47 24.3 17 25
0039E050 2019-03-11 00:26:27 24.2 18 24.9
0039E050 2019-03-10 23:54:09 24.2 18 25.1
0039E050 2019-03-10 23:21:50 24.2 20 25.3
0039E050 2019-03-10 22:49:32 24.3 18 25.3
0039E050 2019-03-10 22:17:13 24.3 19 25.4
0039E050 2019-03-10 21:44:53 24.2 20 25.4
0039E050 2019-03-10 21:12:36 24.1 17 25.4
0039E050 2019-03-10 20:40:18 24.1 17 25.4
0039E050 2019-03-10 20:08:00 24.1 18 25.5
0039E050 2019-03-10 19:35:41 24.1 19 25.5
0039E050 2019-03-10 19:03:21 23.9 19 25.5
0039E050 2019-03-10 18:31:01 23.9 21 25.4
0039E050 2019-03-10 17:58:42 23.8 19 25.5
0039E050 2019-03-10 17:26:24 23.8 18 25.5
0039E050 2019-03-10 16:54:03 23.7 19 25.5
0039E050 2019-03-10 16:21:43 23.5 21 25.6
0039E050 2019-03-10 15:49:23 23.3 17 25.6
0039E050 2019-03-10 15:17:04 23.1 17 25.7
0039E050 2019-03-10 14:44:45 23.1 18 25.8
0039E050 2019-03-10 14:12:25 23 18 25.8
0039E050 2019-03-10 13:40:04 23 18 25.8
0039E050 2019-03-10 13:07:43 23.1 19 25.8
0039E050 2019-03-10 12:35:23 23.1 20 25.8
0039E050 2019-03-10 12:03:03 23.1 20 25.9
0039E050 2019-03-10 11:30:44 23.1 20 25.7
0039E050 2019-03-10 10:57:52 23.1 21 25.7
0039E050 2019-03-10 10:25:34 23.2 21 25.6
0039E050 2019-03-10 09:53:15 23.2 22 25.5
0039E050 2019-03-10 09:20:55 23.2 22 25.4
0039E050 2019-03-10 08:48:35 23.3 23 25.3
0039E050 2019-03-10 08:16:15 23.3 24 25.3
0039E050 2019-03-10 07:43:55 23.4 24 25.3
0039E050 2019-03-10 07:11:34 23.5 24 25.3
0039E050 2019-03-10 06:39:13 23.6 24 25.2
0039E050 2019-03-10 06:06:51 23.7 24 25.3
0039E050 2019-03-10 05:34:29 23.8 24 25.3
0039E050 2019-03-10 05:02:10 23.9 24 25.3
0039E050 2019-03-10 04:29:50 24 24 25.2
0039E050 2019-03-10 03:57:30 24 24 25.2
0039E050 2019-03-10 03:25:11 24 24 25.1
0039E050 2019-03-10 02:52:51 24.1 24 25.1
0039E050 2019-03-10 02:20:31 24 24 25
0039E050 2019-03-10 01:48:13 24 24 24.9
0039E050 2019-03-10 01:15:57 24 24 24.9
0039E050 2019-03-10 00:43:36 23.9 24 24.9
0039E050 2019-03-10 00:11:18 23.9 24 24.9
0039E050 2019-03-09 23:38:57 23.9 23 24.8
0039E050 2019-03-09 23:06:37 23.9 23 24.8
0039E050 2019-03-09 22:34:20 23.9 23 24.8
0039E050 2019-03-09 22:02:03 23.9 23 24.8
0039E050 2019-03-09 21:29:46 23.9 24 24.7
0039E050 2019-03-09 20:57:27 23.8 24 24.6
0039E050 2019-03-09 20:25:09 23.7 24 24.6
0039E050 2019-03-09 19:52:52 23.6 24 24.5
0039E050 2019-03-09 19:20:32 23.5 23 24.6
0039E050 2019-03-09 18:48:12 23.4 23 24.5
0039E050 2019-03-09 18:15:52 23.3 23 24.5
0039E050 2019-03-09 17:43:33 23.2 23 24.5
0039E050 2019-03-09 17:11:13 23.2 23 24.6
0039E050 2019-03-09 16:38:53 23.2 22 24.4
0039E050 2019-03-09 16:06:34 23.3 20 24.3
0039E050 2019-03-09 15:34:15 23.4 20 24.3
0039E050 2019-03-09 15:01:56 23.5 21 24.5
0039E050 2019-03-09 14:29:38 23.5 22 24.4
0039E050 2019-03-09 13:57:19 23.4 23 24.5
0039E050 2019-03-09 13:25:01 23.3 25 24.5
0039E050 2019-03-09 12:52:39 23.1 26 24.5
0039E050 2019-03-09 12:20:20 23.1 20 24.4
0039E050 2019-03-09 11:48:00 23.1 20 24.4
0039E050 2019-03-09 11:15:41 23.1 21 24.4
0039E050 2019-03-09 10:43:22 23.1 21 24.6
0039E050 2019-03-09 10:11:04 23.1 21 24.5
0039E050 2019-03-09 09:38:48 23.1 22 24.7
0039E050 2019-03-09 09:06:29 23.1 23 24.8
0039E050 2019-03-09 08:34:10 23.1 23 24.8
0039E050 2019-03-09 08:01:17 23.1 23 24.9
0039E050 2019-03-09 07:28:57 23.1 24 24.9
0039E050 2019-03-09 06:56:38 23.2 25 25
0039E050 2019-03-09 06:24:19 23.3 26 24.9
0039E050 2019-03-09 05:52:01 23.4 26 24.9
0039E050 2019-03-09 05:19:41 23.6 27 24.8
0039E050 2019-03-09 04:47:19 23.9 27 24.8
0039E050 2019-03-09 04:15:01 24.1 26 24.9
0039E050 2019-03-09 03:42:41 24.1 24 25
0039E050 2019-03-09 03:10:23 24.1 24 24.9
0039E050 2019-03-09 02:38:05 24.1 24 24.8
0039E050 2019-03-09 02:05:46 24.1 25 24.8
0039E050 2019-03-09 01:33:27 24.1 26 24.8
0039E050 2019-03-09 01:01:08 24 27 25.2
0039E050 2019-03-09 00:28:49 23.9 29 25.2
0039E050 2019-03-08 23:56:30 23.8 31 25.3
0039E050 2019-03-08 23:24:11 23.8 34 25.3
0039E050 2019-03-08 22:51:50 23.8 32 25.3
0039E050 2019-03-08 22:19:31 23.7 27 25.4
0039E050 2019-03-08 21:47:10 23.7 27 25.3
0039E050 2019-03-08 21:14:50 23.6 27 25.3
0039E050 2019-03-08 20:42:30 23.4 27 25.3
0039E050 2019-03-08 20:10:10 23.2 28 25.2
0039E050 2019-03-08 19:37:52 23 30 25.3
0039E050 2019-03-08 19:05:30 22.9 27 25.4
0039E050 2019-03-08 18:33:10 23.1 26 25.3
0039E050 2019-03-08 18:00:51 23.1 27 25.5
0039E050 2019-03-08 17:28:34 23 26 25.4
0039E050 2019-03-08 16:56:14 22.9 25 25.4
0039E050 2019-03-08 16:23:53 23.2 25 25.6
0039E050 2019-03-08 15:51:33 23.2 26 25.6
0039E050 2019-03-08 15:19:14 23.3 26 25.6
0039E050 2019-03-08 14:46:54 23.4 28 25.7
0039E050 2019-03-08 14:14:35 23.4 29 25.6
0039E050 2019-03-08 13:42:15 23.3 32 25.7
0039E050 2019-03-08 13:09:56 23.3 25 25.7
0039E050 2019-03-08 12:37:38 23.3 25 25.8
0039E050 2019-03-08 12:05:16 23.4 25 25.8
0039E050 2019-03-08 11:32:56 23.4 25 25.6
0039E050 2019-03-08 11:00:38 23.4 24 25.5
0039E050 2019-03-08 10:28:22 23.4 24 25.4
0039E050 2019-03-08 09:56:02 23.4 24 25.4
0039E050 2019-03-08 09:23:44 23.5 24 25.5
0039E050 2019-03-08 08:51:25 23.5 25 25.5
0039E050 2019-03-08 08:19:06 23.5 25 25.5
0039E050 2019-03-08 07:46:46 23.6 25 25.5
0039E050 2019-03-08 07:14:29 23.7 25 25.6
0039E050 2019-03-08 06:42:09 23.7 25 25.7
0039E050 2019-03-08 06:09:49 23.8 25 25.7
0039E050 2019-03-08 05:37:30 24 25 25.7
0039E050 2019-03-08 05:04:37 24.1 25 25.6
0039E050 2019-03-08 04:32:18 24.2 25 25.7
0039E050 2019-03-08 03:59:58 24.3 24 25.7
0039E050 2019-03-08 03:27:39 24.4 25 25.7
0039E050 2019-03-08 02:55:25 24.4 25 25.7
0039E050 2019-03-08 02:23:02 24.5 24 25.7
0039E050 2019-03-08 01:50:42 24.5 24 25.6
0039E050 2019-03-08 01:18:24 24.5 24 25.6
0039E050 2019-03-08 00:46:07 24.6 24 25.5
0039E050 2019-03-08 00:13:51 24.6 24 25.5
0039E050 2019-03-07 23:41:33 24.5 25 25.4
0039E050 2019-03-07 23:09:16 24.5 23 25.6
0039E050 2019-03-07 22:37:00 24.5 24 25.4
0039E050 2019-03-07 22:04:41 24.5 23 25.6
0039E050 2019-03-07 21:32:22 24.5 23 25.7
0039E050 2019-03-07 21:00:03 24.3 23 25.8
0039E050 2019-03-07 20:27:43 24.3 23 25.8
0039E050 2019-03-07 19:55:24 24.3 23 25.8
0039E050 2019-03-07 19:23:05 24.4 23 25.7
0039E050 2019-03-07 18:50:46 24.4 23 25.7
0039E050 2019-03-07 18:18:27 24.4 23 25.6
0039E050 2019-03-07 17:46:09 24.3 23 25.5
0039E050 2019-03-07 17:13:51 24.2 24 25.4
0039E050 2019-03-07 16:41:33 24.2 24 25.4
0039E050 2019-03-07 16:09:14 24.1 26 25.4
0039E050 2019-03-07 15:36:55 24.1 27 25.3
0039E050 2019-03-07 15:04:36 24 24 25.3
0039E050 2019-03-07 14:32:22 24.1 22 25.2
0039E050 2019-03-07 14:00:06 24.2 21 25.2
0039E050 2019-03-07 13:27:48 24.2 22 25.1
0039E050 2019-03-07 12:55:30 24.3 22 25.1
0039E050 2019-03-07 12:23:12 24.1 21 25.1
0039E050 2019-03-07 11:50:53 23.7 20 25.3
0039E050 2019-03-07 11:18:33 23.6 19 25.3
0039E050 2019-03-07 10:46:15 23.7 20 25.3
0039E050 2019-03-07 10:13:56 23.8 22 25.4
0039E050 2019-03-07 09:41:37 23.8 23 25.6
0039E050 2019-03-07 09:09:19 23.7 26 25.5
0039E050 2019-03-07 08:37:00 23.7 19 25.4
0039E050 2019-03-07 08:04:39 23.7 19 25.3
0039E050 2019-03-07 07:32:22 23.8 19 25.2
0039E050 2019-03-07 07:00:07 23.8 19 25.3
0039E050 2019-03-07 06:27:51 23.9 19 25.2
0039E050 2019-03-07 05:55:33 24 19 25.3
0039E050 2019-03-07 05:23:13 24 19 25.3
0039E050 2019-03-07 04:50:53 24.1 19 25.2
0039E050 2019-03-07 04:18:33 24.4 19 25.2
0039E050 2019-03-07 03:46:15 24.5 19 25.2
0039E050 2019-03-07 03:13:55 24.5 20 25.3
0039E050 2019-03-07 02:41:35 24.5 20 25.3
0039E050 2019-03-07 02:08:41 24.5 21 25.4
0039E050 2019-03-07 01:36:22 24.5 21 25.4
0039E050 2019-03-07 01:04:03 24.6 19 25.4
0039E050 2019-03-07 00:31:44 24.7 19 25.4
0039E050 2019-03-06 23:59:26 24.6 20 25.4
0039E050 2019-03-06 23:27:10 24.7 20 25.4
0039E050 2019-03-06 22:54:53 24.6 21 25.3
0039E050 2019-03-06 22:22:37 24.6 17 25.4
0039E050 2019-03-06 21:50:20 24.6 17 25.3
0039E050 2019-03-06 21:18:02 24.6 16 25.3
0039E050 2019-03-06 20:45:45 24.6 16 25
0039E050 2019-03-06 20:13:25 24.6 15 25.2
0039E050 2019-03-06 19:41:06 24.7 14 25.3
0039E050 2019-03-06 19:08:47 24.8 14 25.4
0039E050 2019-03-06 18:36:29 25.1 14 25.5
0039E050 2019-03-06 18:04:12 25 15 25.6
0039E050 2019-03-06 17:31:57 24.6 14 25.7
0039E050 2019-03-06 16:59:40 24.5 13 25.7
0039E050 2019-03-06 16:27:21 24.5 13 25.7
0039E050 2019-03-06 15:55:02 24.4 13 25.8
0039E050 2019-03-06 15:22:42 24.4 14 25.9
0039E050 2019-03-06 14:50:22 24.3 14 25.9
0039E050 2019-03-06 14:18:02 24.3 13 25.9
0039E050 2019-03-06 13:45:44 24.3 14 26
0039E050 2019-03-06 13:13:26 24.3 10 26
0039E050 2019-03-06 12:41:11 24.2 9 25.9
0039E050 2019-03-06 12:08:55 24.2 8 25.9
0039E050 2019-03-06 11:36:37 24.3 8 25.9
0039E050 2019-03-06 11:04:17 24.3 8 26.1
0039E050 2019-03-06 10:32:00 24.3 9 26.1
0039E050 2019-03-06 09:59:41 24.3 9 26
0039E050 2019-03-06 09:27:26 24.3 10 26
0039E050 2019-03-06 08:55:14 24.2 10 25.9
0039E050 2019-03-06 08:22:58 24.2 10 26.1
0039E050 2019-03-06 07:50:43 24.2 10 26
0039E050 2019-03-06 07:18:24 24.2 10 25.9
0039E050 2019-03-06 06:46:06 24.2 10 25.9
0039E050 2019-03-06 06:13:46 24.2 10 25.8
0039E050 2019-03-06 05:41:28 24.2 10 25.9
0039E050 2019-03-06 05:09:09 24.2 9 25.8
0039E050 2019-03-06 04:36:49 24.3 9 25.6
0039E050 2019-03-06 04:04:29 24.4 10 25.6
0039E050 2019-03-06 03:32:09 24.5 10 25.6
0039E050 2019-03-06 02:59:50 24.4 11 25.5
0039E050 2019-03-06 02:27:30 24.4 11 25.5
0039E050 2019-03-06 01:55:11 24.4 11 25.7
0039E050 2019-03-06 01:22:50 24.4 11 25.7
0039E050 2019-03-06 00:50:30 24.3 11 25.6
0039E050 2019-03-06 00:18:11 24.3 12 25.6
0039E050 2019-03-05 23:45:51 24.2 10 25.6
0039E050 2019-03-05 23:12:59 24.2 11 25.7
0039E050 2019-03-05 22:40:39 24.1 11 25.7
0039E050 2019-03-05 22:08:18 24.1 10 25.6
0039E050 2019-03-05 21:35:59 24.1 11 25.6
0039E050 2019-03-05 21:03:40 24.2 12 25.6
0039E050 2019-03-05 20:31:20 24.1 13 25.6
0039E050 2019-03-05 19:59:02 24.1 12 25.7
0039E050 2019-03-05 19:26:42 24 13 25.6
0039E050 2019-03-05 18:54:24 24 14 25.6
0039E050 2019-03-05 18:22:05 24 13 25.7
0039E050 2019-03-05 17:49:45 23.9 14 25.6
0039E050 2019-03-05 17:17:26 23.8 14 25.6
0039E050 2019-03-05 16:45:07 23.7 14 25.6
0039E050 2019-03-05 16:12:52 23.8 14 25.5
0039E050 2019-03-05 15:40:29 23.5 14 25.5
0039E050 2019-03-05 15:08:09 23.9 15 25.5
0039E050 2019-03-05 14:35:49 24.2 18 25.6
0039E050 2019-03-05 14:03:27 24 18 25.6
0039E050 2019-03-05 13:31:06 23.7 18 25.6
0039E050 2019-03-05 12:58:47 23.6 18 25.4
0039E050 2019-03-05 12:26:31 23.4 20 25.4
0039E050 2019-03-05 11:54:13 23.2 15 25.5
0039E050 2019-03-05 11:21:56 23.2 15 25.5
0039E050 2019-03-05 10:49:38 23.2 15 25.5
0039E050 2019-03-05 10:17:18 23.2 15 25.5
0039E050 2019-03-05 09:44:57 23.2 15 25.5
0039E050 2019-03-05 09:12:37 23.2 16 25.4
0039E050 2019-03-05 08:40:17 23.2 16 25.5
0039E050 2019-03-05 08:07:57 23.2 17 25.4
0039E050 2019-03-05 07:35:36 23.2 17 25.4
0039E050 2019-03-05 07:03:14 23.2 17 25.8
0039E050 2019-03-05 06:30:54 23.2 18 25.7
0039E050 2019-03-05 05:58:34 23.2 18 25.7
0039E050 2019-03-05 05:26:14 23.3 18 25.8
0039E050 2019-03-05 04:53:56 23.3 18 25.8
0039E050 2019-03-05 04:21:38 23.4 18 25.8
0039E050 2019-03-05 03:49:17 23.5 18 25.9
0039E050 2019-03-05 03:16:58 23.6 18 25.8
0039E050 2019-03-05 02:44:37 23.8 19 25.9
0039E050 2019-03-05 02:12:15 23.8 19 25.8
0039E050 2019-03-05 01:39:54 23.7 19 25.9
0039E050 2019-03-05 01:07:34 23.7 19 25.9
0039E050 2019-03-05 00:35:14 23.7 20 26
0039E050 2019-03-05 00:02:53 23.7 20 25.9
0039E050 2019-03-04 23:30:35 23.6 20 25.8
0039E050 2019-03-04 22:58:18 23.6 20 25.8
0039E050 2019-03-04 22:25:57 23.5 20 26.1
0039E050 2019-03-04 21:53:36 23.6 19 26.1
0039E050 2019-03-04 21:21:16 23.5 19 26
0039E050 2019-03-04 20:48:55 23.5 19 25.9
0039E050 2019-03-04 20:16:02 23.4 20 26
0039E050 2019-03-04 19:43:41 23.3 19 26
0039E050 2019-03-04 19:11:21 23.3 18 26.1
0039E050 2019-03-04 18:39:01 23.2 19 26.1
0039E050 2019-03-04 18:06:40 23 19 25.9
0039E050 2019-03-04 17:34:20 22.9 18 26
0039E050 2019-03-04 17:01:59 23 18 25.9
0039E050 2019-03-04 16:29:38 23.1 18 25.9
0039E050 2019-03-04 15:57:18 23.2 19 25.9
0039E050 2019-03-04 15:25:00 23.3 19 25.8
0039E050 2019-03-04 14:52:43 23.4 20 25.7
0039E050 2019-03-04 14:20:24 23.3 21 25.7
0039E050 2019-03-04 13:48:05 23.1 22 25.6
0039E050 2019-03-04 13:15:45 22.9 24 25.5
0039E050 2019-03-04 12:43:27 22.8 22 25.5
0039E050 2019-03-04 12:11:08 22.7 23 25.5
0039E050 2019-03-04 11:38:49 22.6 17 25.5
0039E050 2019-03-04 11:06:30 22.6 17 25.4
0039E050 2019-03-04 10:34:12 22.6 16 25.4
0039E050 2019-03-04 10:01:53 22.7 16 25.4
0039E050 2019-03-04 09:29:34 22.7 16 24.9
0039E050 2019-03-04 08:57:17 22.7 16 25
0039E050 2019-03-04 08:24:59 22.7 16 25.1
0039E050 2019-03-04 07:52:41 22.7 16 25.2
0039E050 2019-03-04 07:20:22 22.8 16 25.3
0039E050 2019-03-04 06:48:06 22.8 16 25.2
0039E050 2019-03-04 06:15:50 22.8 16 25.1
0039E050 2019-03-04 05:43:33 22.8 16 25
0039E050 2019-03-04 05:11:15 22.9 16 25
0039E050 2019-03-04 04:38:55 23 15 24.9
0039E050 2019-03-04 04:06:40 23.2 16 25
0039E050 2019-03-04 03:34:24 23.3 16 24.9
0039E050 2019-03-04 03:02:08 23.3 18 25
0039E050 2019-03-04 02:29:53 23.3 18 25.1
0039E050 2019-03-04 01:57:39 23.3 19 25.1
0039E050 2019-03-04 01:25:21 23.3 19 25.1
0039E050 2019-03-04 00:53:03 23.3 21 25.1
0039E050 2019-03-04 00:20:45 23.2 19 25.1
0039E050 2019-03-03 23:48:26 23.2 17 25.2
0039E050 2019-03-03 23:16:08 23.1 18 25.2
0039E050 2019-03-03 22:43:50 23 18 25.2
0039E050 2019-03-03 22:11:32 22.9 17 25.2
0039E050 2019-03-03 21:39:13 23 16 25.3
0039E050 2019-03-03 21:06:54 23.1 15 25.3
0039E050 2019-03-03 20:34:38 23.1 15 25.3
0039E050 2019-03-03 20:02:22 23.1 15 25.4
0039E050 2019-03-03 19:30:03 23.1 16 25.3
0039E050 2019-03-03 18:57:42 23.1 17 25.3
0039E050 2019-03-03 18:25:21 23 19 25.2
0039E050 2019-03-03 17:53:01 22.8 19 25.4
0039E050 2019-03-03 17:20:09 22.7 13 25.3
0039E050 2019-03-03 16:47:50 22.7 13 25.4
0039E050 2019-03-03 16:15:32 22.9 14 25.5
0039E050 2019-03-03 15:43:14 23 14 25.4
0039E050 2019-03-03 15:10:56 23.2 17 25.2
0039E050 2019-03-03 14:38:36 23.1 18 25.4
0039E050 2019-03-03 14:06:18 23.2 19 25.3
0039E050 2019-03-03 13:33:59 23 23 25.3
0039E050 2019-03-03 13:01:38 22.8 14 25.1
0039E050 2019-03-03 12:29:19 22.8 13 25.2
0039E050 2019-03-03 11:56:59 22.8 12 25.2
0039E050 2019-03-03 11:24:41 22.8 12 25.3
0039E050 2019-03-03 10:52:22 22.8 12 25.3
0039E050 2019-03-03 10:20:03 22.7 12 25.5
0039E050 2019-03-03 09:47:43 22.7 12 25.3
0039E050 2019-03-03 09:15:24 22.7 13 25.5
0039E050 2019-03-03 08:43:04 22.7 13 25.4
0039E050 2019-03-03 08:10:43 22.7 13 25.4
0039E050 2019-03-03 07:38:23 22.7 13 25.7
0039E050 2019-03-03 07:06:07 22.7 13 25.7
0039E050 2019-03-03 06:33:50 22.7 13 25.7
0039E050 2019-03-03 06:01:31 22.7 13 25.6
0039E050 2019-03-03 05:29:11 22.8 14 25.6
0039E050 2019-03-03 04:56:51 23 14 25.4
0039E050 2019-03-03 04:24:34 23.1 15 25.4
0039E050 2019-03-03 03:52:15 23 16 25.4
0039E050 2019-03-03 03:19:55 23 16 25.3
0039E050 2019-03-03 02:47:40 23 17 25.2
0039E050 2019-03-03 02:15:24 22.9 17 25.2
0039E050 2019-03-03 01:43:04 22.9 18 25.2
0039E050 2019-03-03 01:10:45 22.9 18 25
0039E050 2019-03-03 00:38:26 22.8 18 25
0039E050 2019-03-03 00:06:07 22.8 18 25.4
0039E050 2019-03-02 23:33:47 22.8 19 25.8
0039E050 2019-03-02 23:01:28 23 19 25.7
0039E050 2019-03-02 22:29:12 23 21 25.7
0039E050 2019-03-02 21:56:57 23 22 25.7
0039E050 2019-03-02 21:24:41 22.9 23 25.6
0039E050 2019-03-02 20:52:24 23 23 25.5
0039E050 2019-03-02 20:20:05 23 25 25.5
0039E050 2019-03-02 19:47:46 23 26 25.4
0039E050 2019-03-02 19:15:28 23 26 25.5
0039E050 2019-03-02 18:43:09 23 23 25.5
0039E050 2019-03-02 18:10:50 22.9 22 25.1
0039E050 2019-03-02 17:38:32 22.9 22 25.2
0039E050 2019-03-02 17:06:13 22.9 24 25.1
0039E050 2019-03-02 16:33:54 23 25 25.1
0039E050 2019-03-02 16:01:36 22.9 24 25.1
0039E050 2019-03-02 15:29:19 22.9 25 25.1
0039E050 2019-03-02 14:57:03 22.9 30 25.2
0039E050 2019-03-02 14:24:12 22.8 24 25.3
0039E050 2019-03-02 13:51:54 22.8 25 25.3
0039E050 2019-03-02 13:19:36 22.7 27 25.3
0039E050 2019-03-02 12:47:20 22.5 29 25.3
0039E050 2019-03-02 12:15:03 22.4 30 25.3
0039E050 2019-03-02 11:42:51 22.3 21 25.3
0039E050 2019-03-02 11:10:38 22.3 20 25.3
0039E050 2019-03-02 10:38:23 22.3 19 24.9
0039E050 2019-03-02 10:06:01 22.4 19 25.1
0039E050 2019-03-02 09:33:43 22.3 19 25.1
0039E050 2019-03-02 09:01:24 22.3 19 25.2
0039E050 2019-03-02 08:29:06 22.4 19 25.2
0039E050 2019-03-02 07:56:51 22.4 19 25.2
0039E050 2019-03-02 07:24:33 22.4 19 25.2
0039E050 2019-03-02 06:52:14 22.5 19 25.2
0039E050 2019-03-02 06:19:55 22.5 18 25.1
0039E050 2019-03-02 05:47:36 22.5 18 25.1
0039E050 2019-03-02 05:15:16 22.6 18 25.1
0039E050 2019-03-02 04:43:00 22.7 17 25.1
0039E050 2019-03-02 04:10:41 22.8 17 25.2
0039E050 2019-03-02 03:38:22 22.9 17 25.3
0039E050 2019-03-02 03:06:03 23.1 17 25.4
0039E050 2019-03-02 02:33:45 23.2 16 25.5
0039E050 2019-03-02 02:01:27 23.2 16 25.4
0039E050 2019-03-02 01:29:08 23.1 17 25.3
0039E050 2019-03-02 00:56:49 23.1 14 25.3
0039E050 2019-03-02 00:24:32 23.2 13 25.4
0039E050 2019-03-01 23:52:15 23.1 12 25.4
0039E050 2019-03-01 23:19:59 23.1 12 25.5
0039E050 2019-03-01 22:47:40 23.1 12 25.6
0039E050 2019-03-01 22:15:20 23.1 12 25.6
0039E050 2019-03-01 21:43:01 23.1 12 25.2
0039E050 2019-03-01 21:10:42 23.1 12 25.2
0039E050 2019-03-01 20:38:22 23.1 12 25.1
0039E050 2019-03-01 20:06:04 23.2 13 25.1
0039E050 2019-03-01 19:33:44 23.2 14 25.4
0039E050 2019-03-01 19:01:26 22.7 12 25.5
0039E050 2019-03-01 18:29:07 22.3 11 25.4
0039E050 2019-03-01 17:56:47 22.2 11 25.5
0039E050 2019-03-01 17:24:26 22.2 10 25.4
0039E050 2019-03-01 16:52:06 22.3 10 25.5
0039E050 2019-03-01 16:19:45 22.3 10 25.6
0039E050 2019-03-01 15:47:25 22.3 11 25.6
0039E050 2019-03-01 15:15:03 22.3 11 25.6
0039E050 2019-03-01 14:42:43 22.3 11 25.6
0039E050 2019-03-01 14:10:22 22.4 11 25.6
0039E050 2019-03-01 13:38:04 22.4 11 25.5
0039E050 2019-03-01 13:05:48 22.4 11 25.4
0039E050 2019-03-01 12:33:28 22.4 12 25.4
0039E050 2019-03-01 12:01:10 22.4 12 25.5
0039E050 2019-03-01 11:28:18 22.4 12 25.4
0039E050 2019-03-01 10:56:00 22.4 13 25.4
0039E050 2019-03-01 10:23:40 22.4 15 25.3
0039E050 2019-03-01 09:51:24 22.4 18 25.2
0039E050 2019-03-01 09:19:07 22.3 14 25.2
0039E050 2019-03-01 08:46:51 22.2 13 25.3
0039E050 2019-03-01 08:14:34 22.2 13 25.4
0039E050 2019-03-01 07:42:18 22.2 13 25.4
0039E050 2019-03-01 07:10:01 22.2 14 25.4
0039E050 2019-03-01 06:37:41 22.1 14 25
0039E050 2019-03-01 06:05:26 22.1 14 24.9
0039E050 2019-03-01 05:33:08 22.1 14 24.9
0039E050 2019-03-01 05:00:51 22.1 14 24.9
0039E050 2019-03-01 04:28:30 22.1 15 24.9
0039E050 2019-03-01 03:56:11 22.1 15 25
0039E050 2019-03-01 03:23:52 22.1 15 24.8
0039E050 2019-03-01 02:51:33 22.2 15 24.7
0039E050 2019-03-01 02:19:13 22.3 14 24.7
0039E050 2019-03-01 01:46:55 22.4 14 24.5
0039E050 2019-03-01 01:14:36 22.5 14 24.4
0039E050 2019-03-01 00:42:16 22.5 14 24.5
0039E050 2019-03-01 00:09:58 22.5 15 24.4
0039E050 2019-02-28 23:37:38 22.4 15 24.5
0039E050 2019-02-28 23:05:19 22.4 16 24.5
0039E050 2019-02-28 22:33:00 22.3 17 24.6
0039E050 2019-02-28 22:00:40 22.2 17 24.6
0039E050 2019-02-28 21:28:21 22.2 18 24.5
0039E050 2019-02-28 20:56:03 22.1 19 24.6
0039E050 2019-02-28 20:23:44 21.9 20 24.7
0039E050 2019-02-28 19:51:23 21.7 21 24.7
0039E050 2019-02-28 19:19:04 21.5 20 24.6
0039E050 2019-02-28 18:46:45 21.4 21 24.6
0039E050 2019-02-28 18:14:25 21.6 22 24.6
0039E050 2019-02-28 17:42:04 21.6 24 24.7
0039E050 2019-02-28 17:09:45 21.6 25 24.8
0039E050 2019-02-28 16:37:24 21.6 26 24.8
0039E050 2019-02-28 16:05:04 21.7 26 24.9
0039E050 2019-02-28 15:32:45 21.7 25 24.9
0039E050 2019-02-28 15:00:29 21.7 25 25
0039E050 2019-02-28 14:28:07 21.7 25 25
0039E050 2019-02-28 13:55:47 21.7 25 25.1
0039E050 2019-02-28 13:23:26 21.7 25 25.2
0039E050 2019-02-28 12:51:06 21.7 25 25.2
0039E050 2019-02-28 12:18:45 21.8 25 25.3
0039E050 2019-02-28 11:46:22 21.8 25 25.2
0039E050 2019-02-28 11:14:03 21.8 25 25.3
0039E050 2019-02-28 10:41:41 21.9 26 25.3
0039E050 2019-02-28 09:37:01 21.9 31 25.3
0039E050 2019-02-28 09:04:40 21.8 31 25.4
0039E050 2019-02-28 08:31:47 21.7 24 25.5
0039E050 2019-02-28 07:59:27 21.7 24 25.5
0039E050 2019-02-28 07:27:07 21.7 24 25.5
0039E050 2019-02-28 06:54:46 21.7 24 25.5
0039E050 2019-02-28 06:22:26 21.7 24 25.5
0039E050 2019-02-28 05:50:05 21.7 24 25.4
0039E050 2019-02-28 05:17:44 21.7 24 25.5
0039E050 2019-02-28 04:45:23 21.8 24 25.4
0039E050 2019-02-28 04:13:01 21.8 24 25.4
0039E050 2019-02-28 03:40:41 21.8 23 25.5
0039E050 2019-02-28 03:08:20 21.9 23 25.3
0039E050 2019-02-28 02:36:00 21.9 22 25.3
0039E050 2019-02-28 02:03:38 22 22 25.4
0039E050 2019-02-28 01:31:17 22.1 22 25.3
0039E050 2019-02-28 00:58:56 22.3 22 25.4
0039E050 2019-02-28 00:26:37 22.4 22 25.7
0039E050 2019-02-27 23:54:16 22.4 22 25.7
0039E050 2019-02-27 23:21:57 22.4 21 25.7
0039E050 2019-02-27 22:49:36 22.3 21 25.7
0039E050 2019-02-27 22:17:16 22.3 21 25.6
0039E050 2019-02-27 21:44:55 22.3 21 25.6
0039E050 2019-02-27 21:12:33 22.3 22 25.6
0039E050 2019-02-27 20:40:12 22.3 22 25.8
0039E050 2019-02-27 20:07:52 22.2 22 25.7
0039E050 2019-02-27 19:35:31 22.1 23 25.8
0039E050 2019-02-27 19:03:09 22 23 25.8
0039E050 2019-02-27 18:30:52 21.8 23 25.8
0039E050 2019-02-27 17:58:36 21.6 23 25.7
0039E050 2019-02-27 17:26:16 21.7 23 25.8
0039E050 2019-02-27 16:53:55 21.7 23 25.7
0039E050 2019-02-27 16:21:36 21.7 24 25.7
0039E050 2019-02-27 15:49:16 21.7 24 25.8
0039E050 2019-02-27 15:16:56 21.8 24 25.9
0039E050 2019-02-27 14:44:37 21.8 25 25.9
0039E050 2019-02-27 14:12:17 21.8 25 25.8
0039E050 2019-02-27 13:39:55 21.8 25 25.9
0039E050 2019-02-27 13:07:35 21.8 25 26.2
0039E050 2019-02-27 12:35:16 21.9 26 26.1
0039E050 2019-02-27 12:02:54 21.9 26 26.1
0039E050 2019-02-27 11:30:34 21.9 27 26.1
0039E050 2019-02-27 10:58:13 22 29 25.8
0039E050 2019-02-27 10:25:52 22.1 32 25.8
0039E050 2019-02-27 09:53:31 22 34 25.8
0039E050 2019-02-27 09:21:10 22 27 25.9
0039E050 2019-02-27 08:48:50 21.8 26 26
0039E050 2019-02-27 08:16:31 21.9 26 26
0039E050 2019-02-27 07:44:12 21.9 26 26
0039E050 2019-02-27 07:11:54 21.9 26 25.8
0039E050 2019-02-27 06:39:35 21.9 26 25.8
0039E050 2019-02-27 06:07:16 21.9 26 25.7
0039E050 2019-02-27 05:34:23 22 26 25.8
0039E050 2019-02-27 05:02:04 22 26 25.9
0039E050 2019-02-27 04:29:44 22 26 25.8
0039E050 2019-02-27 03:57:25 22 25 25.9
0039E050 2019-02-27 03:25:04 22 25 26
0039E050 2019-02-27 02:52:43 22.1 25 25.9
0039E050 2019-02-27 02:20:22 22.1 25 25.9
0039E050 2019-02-27 01:48:02 22.2 25 25.9
0039E050 2019-02-27 01:15:43 22.4 25 25.9
0039E050 2019-02-27 00:43:21 22.5 26 25.9
0039E050 2019-02-27 00:11:01 22.5 26 25.6
0039E050 2019-02-26 23:38:42 22.5 26 25.8
0039E050 2019-02-26 23:06:20 22.5 26 26
0039E050 2019-02-26 22:34:01 22.4 26 25.9
0039E050 2019-02-26 22:01:43 22.4 26 25.9
0039E050 2019-02-26 21:29:26 22.4 26 25.9
0039E050 2019-02-26 20:57:10 22.4 25 25.9
0039E050 2019-02-26 20:24:53 22.4 25 25.8
0039E050 2019-02-26 19:52:34 22.4 25 25.7
0039E050 2019-02-26 19:20:12 22.2 27 25.7
0039E050 2019-02-26 18:47:52 21.7 25 25.7
0039E050 2019-02-26 18:15:32 21.7 24 25.7
0039E050 2019-02-26 17:43:13 21.7 24 25.7
0039E050 2019-02-26 17:10:54 21.7 24 25.8
0039E050 2019-02-26 16:38:35 21.8 24 25.8
0039E050 2019-02-26 16:06:17 21.8 24 25.7
0039E050 2019-02-26 15:33:59 21.8 24 25.8
0039E050 2019-02-26 15:01:39 21.7 24 25.9
0039E050 2019-02-26 14:29:22 21.8 24 25.7
0039E050 2019-02-26 13:57:03 21.8 24 26
0039E050 2019-02-26 13:24:43 21.8 24 26
0039E050 2019-02-26 12:52:24 21.8 24 26
0039E050 2019-02-26 12:20:06 21.8 25 25.9
0039E050 2019-02-26 11:47:45 21.8 25 25.9
0039E050 2019-02-26 11:15:26 21.8 25 25.9
0039E050 2019-02-26 10:43:06 21.8 27 26
0039E050 2019-02-26 10:10:48 21.9 28 25.9
0039E050 2019-02-26 09:38:29 21.9 29 25.7
0039E050 2019-02-26 09:06:10 21.8 26 25.8
0039E050 2019-02-26 08:33:49 21.9 26 25.8
0039E050 2019-02-26 08:01:29 21.9 26 25.8
0039E050 2019-02-26 07:29:08 21.9 26 25.8
0039E050 2019-02-26 06:56:48 21.9 26 25.8
0039E050 2019-02-26 06:24:27 21.9 27 25.9
0039E050 2019-02-26 05:52:08 21.9 27 25.7
0039E050 2019-02-26 05:19:48 21.9 27 25.8
0039E050 2019-02-26 04:47:28 21.9 27 25.8
0039E050 2019-02-26 04:15:09 22 27 25.8
0039E050 2019-02-26 03:42:51 22 26 25.7
0039E050 2019-02-26 03:10:36 22 26 25.8
0039E050 2019-02-26 02:37:48 22 26 25.7
0039E050 2019-02-26 02:05:30 22.1 25 25.6
0039E050 2019-02-26 01:33:11 22.3 25 25.7
0039E050 2019-02-26 01:00:52 22.5 25 25.2
0039E050 2019-02-26 00:28:34 22.5 24 25.1
0039E050 2019-02-25 23:56:16 22.5 23 25
0039E050 2019-02-25 23:23:57 22.6 23 25
0039E050 2019-02-25 22:51:40 22.7 23 24.9
0039E050 2019-02-25 22:19:21 22.7 23 25.3
0039E050 2019-02-25 21:47:01 22.9 23 25.1
0039E050 2019-02-25 21:14:44 23.1 25 25
0039E050 2019-02-25 20:42:27 23 24 24.9
0039E050 2019-02-25 20:10:10 22.5 23 24.9
0039E050 2019-02-25 19:37:55 22.2 24 24.8
0039E050 2019-02-25 19:05:37 21.7 24 24.8
0039E050 2019-02-25 18:33:18 21.5 22 24.8
0039E050 2019-02-25 18:00:58 21.5 21 24.7
0039E050 2019-02-25 17:28:39 21.5 21 24.7
0039E050 2019-02-25 16:56:20 21.6 21 24.8
0039E050 2019-02-25 16:24:00 21.6 21 24.8
0039E050 2019-02-25 15:51:43 21.7 21 24.8
0039E050 2019-02-25 15:19:23 21.7 21 24.7
0039E050 2019-02-25 14:47:04 21.8 21 24.7
0039E050 2019-02-25 14:14:45 21.8 21 24.6
0039E050 2019-02-25 13:42:26 21.8 22 24.6
0039E050 2019-02-25 13:10:05 21.8 22 24.5
0039E050 2019-02-25 12:37:45 21.8 22 24.7
0039E050 2019-02-25 12:05:27 21.9 22 24.8
0039E050 2019-02-25 11:33:09 21.9 22 24.7
0039E050 2019-02-25 11:00:45 21.9 23 24.9
0039E050 2019-02-25 10:28:26 21.9 24 24.9
0039E050 2019-02-25 09:56:08 21.9 25 24.4
0039E050 2019-02-25 09:23:52 22 28 24.4
0039E050 2019-02-25 08:51:32 21.9 27 24.4
0039E050 2019-02-25 08:19:13 21.8 24 24.4
0039E050 2019-02-25 07:46:54 21.9 25 24.4
0039E050 2019-02-25 07:14:34 21.9 25 24.5
0039E050 2019-02-25 06:42:15 21.9 25 24.5
0039E050 2019-02-25 06:09:57 22 25 24.5
0039E050 2019-02-25 05:37:38 22 25 24.5
0039E050 2019-02-25 05:05:19 22.1 25 24.6
0039E050 2019-02-25 04:32:59 22.2 25 24.7
0039E050 2019-02-25 04:00:40 22.3 25 24.6
0039E050 2019-02-25 03:28:21 22.5 24 24.5
0039E050 2019-02-25 02:56:03 22.7 25 24.5
0039E050 2019-02-25 02:23:44 22.6 26 24.6
0039E050 2019-02-25 01:51:28 22.6 29 24.6
0039E050 2019-02-25 01:19:07 22.7 30 24.5
0039E050 2019-02-25 00:46:47 22.7 34 24.6
0039E050 2019-02-25 00:14:28 22.8 35 24.4
0039E050 2019-02-24 23:41:37 22.7 36 24.5
0039E050 2019-02-24 23:09:18 22.7 30 24.6
0039E050 2019-02-24 22:37:01 22.8 25 24.7
0039E050 2019-02-24 22:04:43 22.8 26 24.6
0039E050 2019-02-24 21:32:26 22.7 26 24.7
0039E050 2019-02-24 21:00:11 22.7 26 24.7
0039E050 2019-02-24 20:27:55 22.7 26 24.7
0039E050 2019-02-24 19:55:37 22.7 26 24.8
0039E050 2019-02-24 19:23:19 22.7 28 25
0039E050 2019-02-24 18:51:00 22.7 28 24.9
0039E050 2019-02-24 18:18:41 22.7 28 25
0039E050 2019-02-24 17:46:22 22.7 30 25.1
0039E050 2019-02-24 17:14:03 22.8 29 25
0039E050 2019-02-24 16:41:45 22.7 29 25
0039E050 2019-02-24 16:09:26 22.6 30 25.1
0039E050 2019-02-24 15:37:08 22.6 31 25
0039E050 2019-02-24 15:04:48 22.6 32 25.1
0039E050 2019-02-24 14:32:31 22.6 33 25.2
0039E050 2019-02-24 14:00:12 22.6 27 25.2
0039E050 2019-02-24 13:27:55 22.5 27 25.2
0039E050 2019-02-24 12:55:37 22.3 27 25.2
0039E050 2019-02-24 12:23:19 22.1 27 25.2
0039E050 2019-02-24 11:50:59 22.1 26 25.2
0039E050 2019-02-24 11:18:39 22.1 26 25.6
0039E050 2019-02-24 10:46:21 22.1 26 25.6
0039E050 2019-02-24 10:14:01 22.1 26 25.6
0039E050 2019-02-24 09:41:44 22.1 26 25.6
0039E050 2019-02-24 09:09:25 22.2 26 25.6
0039E050 2019-02-24 08:37:09 22.2 26 25.6
0039E050 2019-02-24 08:04:51 22.2 26 25.6
0039E050 2019-02-24 07:32:33 22.2 26 25.6
0039E050 2019-02-24 07:00:14 22.3 26 25.6
0039E050 2019-02-24 06:27:54 22.3 25 25.6
0039E050 2019-02-24 05:55:34 22.4 25 25.5
0039E050 2019-02-24 05:23:15 22.5 25 25.6
0039E050 2019-02-24 04:50:55 22.6 24 25.6
0039E050 2019-02-24 04:18:36 22.9 24 25.5
0039E050 2019-02-24 03:46:15 22.9 25 25.5
0039E050 2019-02-24 03:13:57 23 25 25.5
0039E050 2019-02-24 02:41:37 22.9 25 25.3
0039E050 2019-02-24 02:09:18 22.9 26 25.3
0039E050 2019-02-24 01:36:59 22.9 26 25.3
0039E050 2019-02-24 01:04:38 22.9 25 25.2
0039E050 2019-02-24 00:32:19 22.9 26 25.2
0039E050 2019-02-23 23:59:59 22.9 26 25.1
0039E050 2019-02-23 23:27:39 22.8 26 25.1
0039E050 2019-02-23 22:55:19 22.8 26 25.1
0039E050 2019-02-23 22:23:00 22.8 26 25.2
0039E050 2019-02-23 21:50:41 22.7 26 24.8
0039E050 2019-02-23 21:18:23 22.7 26 24.7
0039E050 2019-02-23 20:45:32 22.6 26 24.8
0039E050 2019-02-23 20:13:14 22.6 25 24.8
0039E050 2019-02-23 19:40:55 22.6 26 24.8
0039E050 2019-02-23 19:08:37 22.6 26 24.8
0039E050 2019-02-23 18:36:20 22.5 26 24.8
0039E050 2019-02-23 18:04:03 22.3 27 24.8
0039E050 2019-02-23 17:31:47 22.4 26 25
0039E050 2019-02-23 16:59:31 22.4 26 25.1
0039E050 2019-02-23 16:27:19 22.4 26 25
0039E050 2019-02-23 15:55:06 22.3 25 24.9
0039E050 2019-02-23 15:22:51 22.4 25 25
0039E050 2019-02-23 14:50:36 22.5 26 25
0039E050 2019-02-23 14:18:21 22.5 26 25
0039E050 2019-02-23 13:46:04 22.4 26 25.4
0039E050 2019-02-23 13:13:46 22.3 26 25.4
0039E050 2019-02-23 12:41:29 22.3 26 25.4
0039E050 2019-02-23 12:09:11 22.3 23 25.4
0039E050 2019-02-23 11:36:52 22.3 22 25.4
0039E050 2019-02-23 11:04:32 22.3 22 25.5
0039E050 2019-02-23 10:32:13 22.3 22 25.5
0039E050 2019-02-23 09:59:55 22.3 22 25.5
0039E050 2019-02-23 09:27:37 22.4 22 25.4
0039E050 2019-02-23 08:55:20 22.4 22 25.4
0039E050 2019-02-23 08:23:02 22.4 22 25.7
0039E050 2019-02-23 07:50:46 22.4 22 25.6
0039E050 2019-02-23 07:18:26 22.5 22 25.6
0039E050 2019-02-23 06:46:09 22.5 22 25.5
0039E050 2019-02-23 06:13:53 22.5 22 25.4
0039E050 2019-02-23 05:41:35 22.6 21 25.6
0039E050 2019-02-23 05:09:18 22.7 20 25.6
0039E050 2019-02-23 04:37:01 22.8 20 25.7
0039E050 2019-02-23 04:04:41 22.9 20 25.5
0039E050 2019-02-23 03:32:23 23.1 20 25.4
0039E050 2019-02-23 03:00:04 23.1 19 25.6
0039E050 2019-02-23 02:27:45 23.1 18 25.6
0039E050 2019-02-23 01:55:27 23.1 18 25.6
0039E050 2019-02-23 01:23:09 23.2 18 25.8
0039E050 2019-02-23 00:50:50 23.2 17 25.9
0039E050 2019-02-23 00:18:32 23.2 17 25.5
0039E050 2019-02-22 23:46:13 23.2 16 25.6
0039E050 2019-02-22 23:13:55 23.2 16 25.9
0039E050 2019-02-22 22:41:38 23.1 15 25.9
0039E050 2019-02-22 22:09:20 23.1 14 25.8
0039E050 2019-02-22 21:37:05 23.1 14 25.8
0039E050 2019-02-22 21:04:43 23.1 13 25.8
0039E050 2019-02-22 20:32:25 23 12 25.8
0039E050 2019-02-22 20:00:09 23.1 13 25.8
0039E050 2019-02-22 19:27:51 23.1 13 25.8
0039E050 2019-02-22 18:55:33 23 12 25.5
0039E050 2019-02-22 18:23:15 23.1 13 25.6
0039E050 2019-02-22 17:50:23 23.1 12 25.7
0039E050 2019-02-22 17:39:31 23.2 12 25.7
0039E050 2019-02-22 17:28:39 23.2 12 25.7
0039E050 2019-02-22 17:17:47 23.2 12 25.8
0039E050 2019-02-22 17:06:54 23.2 12 25.7
0039E050 2019-02-22 16:56:02 23.2 13 25.7
0039E050 2019-02-22 16:45:09 23.2 13 25.7
0039E050 2019-02-22 16:34:18 23.2 13 25.6
0039E050 2019-02-22 16:23:26 23.2 13 25.7
0039E050 2019-02-22 16:12:34 23.2 14 25.7
0039E050 2019-02-22 16:01:42 23.2 14 25.5
0039E050 2019-02-22 15:50:50 23.2 14 25.4
0039E050 2019-02-22 15:39:58 23.1 15 25.4
0039E050 2019-02-22 15:29:06 23.1 14 25.5
0039E050 2019-02-22 15:18:13 23 14 25.1
0039E050 2019-02-22 15:07:22 23.1 14 25.2
0039E050 2019-02-22 14:56:30 23.1 14 25.4
0039E050 2019-02-22 14:45:37 23.1 15 25.3
0039E050 2019-02-22 14:34:45 23 15 25.4
0039E050 2019-02-22 14:23:52 23 12 25.3
0039E050 2019-02-22 14:12:59 23 12 25.3
0039E050 2019-02-22 14:02:08 23 11 25.5
0039E050 2019-02-22 13:51:16 23 12 25.5
0039E050 2019-02-22 13:40:24 23 12 25.5
0039E050 2019-02-22 13:29:32 23 12 25.3
0039E050 2019-02-22 13:18:41 22.9 12 25.3
0039E050 2019-02-22 13:07:49 22.9 12 25.3
0039E050 2019-02-22 12:56:56 22.8 12 25.3
0039E050 2019-02-22 12:46:04 22.8 12 25.1
0039E050 2019-02-22 12:35:12 22.7 12 25.2
0039E050 2019-02-22 12:24:20 22.8 12 25.2
0039E050 2019-02-22 12:13:27 22.8 12 25.2
0039E050 2019-02-22 12:02:34 22.9 12 25.2
0039E050 2019-02-22 11:51:41 22.9 13 25.3
0039E050 2019-02-22 11:40:48 22.8 12 25.3
0039E050 2019-02-22 11:29:56 22.8 13 25.4
0039E050 2019-02-22 11:19:04 22.8 12 25.4
0039E050 2019-02-22 11:08:12 22.8 12 25.4
0039E050 2019-02-22 10:57:20 22.8 12 25.3
0039E050 2019-02-22 10:46:28 22.7 12 25.3
0039E050 2019-02-22 10:35:35 22.7 12 25.4
0039E050 2019-02-22 10:24:43 22.8 11 25.2
0039E050 2019-02-22 10:13:52 22.7 11 25.3
0039E050 2019-02-22 10:03:01 22.8 11 25.2
0039E050 2019-02-22 09:52:09 22.7 11 25.3
0039E050 2019-02-22 09:41:18 22.7 11 25.2
0039E050 2019-02-22 09:30:25 22.8 11 25
0039E050 2019-02-22 09:19:33 22.7 12 25
0039E050 2019-02-22 09:08:40 22.8 12 25
0039E050 2019-02-22 08:57:47 22.7 12 25.1
0039E050 2019-02-22 08:46:21 22.7 12 25.1
0039E050 2019-02-22 08:35:28 22.7 12 25.1
0039E050 2019-02-22 08:24:35 22.8 12 25.2
0039E050 2019-02-22 08:13:43 22.7 12 25.2
0039E050 2019-02-22 08:02:50 22.7 12 25.2
0039E050 2019-02-22 07:51:57 22.7 12 25.2
0039E050 2019-02-22 07:41:04 22.7 12 25.2
0039E050 2019-02-22 07:30:11 22.7 12 25.1
0039E050 2019-02-22 07:19:17 22.7 12 25.2
0039E050 2019-02-22 07:08:25 22.8 12 25.1
0039E050 2019-02-22 06:57:32 22.7 12 25.2
0039E050 2019-02-22 06:46:39 22.8 12 25.3
0039E050 2019-02-22 06:35:46 22.8 12 25.3
0039E050 2019-02-22 06:24:54 22.8 12 25.2
0039E050 2019-02-22 06:14:02 22.8 12 25.3
0039E050 2019-02-22 06:03:09 22.8 12 25.4
0039E050 2019-02-22 05:52:16 22.8 12 25.4
0039E050 2019-02-22 05:41:24 22.8 12 25.4
0039E050 2019-02-22 05:30:32 22.8 12 25.3
0039E050 2019-02-22 05:19:39 22.8 12 25.5
0039E050 2019-02-22 05:08:47 22.8 12 25.5
0039E050 2019-02-22 04:57:54 22.8 12 25.6
0039E050 2019-02-22 04:47:02 22.8 12 25.5
0039E050 2019-02-22 04:36:10 22.8 12 25.5
0039E050 2019-02-22 04:25:17 22.8 12 25.4
0039E050 2019-02-22 04:14:25 22.8 12 25.4
0039E050 2019-02-22 04:03:33 22.8 12 25.3
0039E050 2019-02-22 03:52:40 22.9 12 25.2
0039E050 2019-02-22 03:41:48 22.9 12 25.3
0039E050 2019-02-22 03:30:56 22.9 12 25.2
0039E050 2019-02-22 03:20:03 22.9 12 25.1
0039E050 2019-02-22 03:09:12 23 12 25.2
0039E050 2019-02-22 02:58:21 23 12 25.1
0039E050 2019-02-22 02:47:29 23 13 25.2
0039E050 2019-02-22 02:36:38 23 13 25.2
0039E050 2019-02-22 02:25:45 23.1 13 25.2
0039E050 2019-02-22 02:14:53 23.1 13 25.1
0039E050 2019-02-22 02:04:02 23 13 25
0039E050 2019-02-22 01:53:10 23 12 25.1
0039E050 2019-02-22 01:42:19 23 12 25
0039E050 2019-02-22 01:31:28 23 13 25
0039E050 2019-02-22 01:20:36 23 13 25.1
0039E050 2019-02-22 01:09:46 23 13 25.1
0039E050 2019-02-22 00:58:54 23 13 25.1
0039E050 2019-02-22 00:48:03 23 13 25.1
0039E050 2019-02-22 00:37:13 23 13 25.1
0039E050 2019-02-22 00:26:20 23 14 25
0039E050 2019-02-22 00:15:29 23 14 25
0039E050 2019-02-22 00:04:36 23 14 25.1
0039E050 2019-02-21 23:53:44 23 14 25.2
0039E050 2019-02-21 23:42:18 23 14 25.3
0039E050 2019-02-21 23:31:25 23 15 25.4
0039E050 2019-02-21 23:20:31 22.9 14 25.4
0039E050 2019-02-21 23:09:39 22.9 14 25.4
0039E050 2019-02-21 22:58:46 22.9 13 25.6
0039E050 2019-02-21 22:47:53 22.9 12 25.4
0039E050 2019-02-21 22:37:01 22.8 12 25.4
0039E050 2019-02-21 22:26:10 22.8 12 25.4
0039E050 2019-02-21 22:15:17 22.8 13 25.3
0039E050 2019-02-21 22:04:26 22.8 13 25.3
0039E050 2019-02-21 21:53:35 22.8 13 25.3
0039E050 2019-02-21 21:42:42 22.8 12 25.4
0039E050 2019-02-21 21:31:50 22.7 12 25.2
0039E050 2019-02-21 21:20:57 22.7 12 25.2
0039E050 2019-02-21 21:10:05 22.7 12 25.2
0039E050 2019-02-21 20:59:13 22.7 12 25.4
0039E050 2019-02-21 20:48:20 22.7 12 25.3
0039E050 2019-02-21 20:37:27 22.7 13 25.4
0039E050 2019-02-21 20:26:35 22.6 12 25.3
0039E050 2019-02-21 20:15:43 22.6 12 25.3
0039E050 2019-02-21 20:04:50 22.6 12 25.3
0039E050 2019-02-21 19:54:03 22.6 12 25.3
0039E050 2019-02-21 19:43:09 22.6 12 25.2
0039E050 2019-02-21 19:32:18 22.5 12 25.2
0039E050 2019-02-21 19:21:27 22.5 12 25.3
0039E050 2019-02-21 19:10:35 22.5 12 25.1
0039E050 2019-02-21 18:59:42 22.4 12 25.1
0039E050 2019-02-21 18:48:49 22.4 12 25
0039E050 2019-02-21 18:37:57 22.4 11 25
0039E050 2019-02-21 18:27:05 22.4 11 25
0039E050 2019-02-21 18:16:12 22.4 10 25
0039E050 2019-02-21 18:05:20 22.4 10 25.1
0039E050 2019-02-21 17:54:28 22.4 10 25.2
0039E050 2019-02-21 17:43:36 22.4 10 25.2
0039E050 2019-02-21 17:32:44 22.4 10 25.1
0039E050 2019-02-21 17:21:52 22.4 10 25.3
0039E050 2019-02-21 17:11:00 22.4 10 25.3
0039E050 2019-02-21 17:00:07 22.4 10 25.3
0039E050 2019-02-21 16:49:16 22.4 10 25.4
0039E050 2019-02-21 16:38:23 22.4 10 25.3
0039E050 2019-02-21 16:27:31 22.4 10 25.2
0039E050 2019-02-21 16:16:39 22.4 10 25.3
0039E050 2019-02-21 16:05:47 22.4 10 25.2
0039E050 2019-02-21 15:54:55 22.4 10 25.3
0039E050 2019-02-21 15:44:02 22.4 10 25.2
0039E050 2019-02-21 15:33:10 22.4 10 25.2
0039E050 2019-02-21 15:22:19 22.4 10 25.3
0039E050 2019-02-21 15:11:26 22.4 10 25.3
0039E050 2019-02-21 15:00:34 22.4 10 25.3
0039E050 2019-02-21 14:49:41 22.4 10 25.3
0039E050 2019-02-21 14:38:16 22.4 10 25.3
0039E050 2019-02-21 14:05:57 22.4 11 25.3
0039E050 2019-02-21 13:33:37 22.4 11 25.3
0039E050 2019-02-21 13:01:17 22.4 12 25.2
0039E050 2019-02-21 12:29:02 22.4 12 25.2
0039E050 2019-02-21 11:56:40 22.4 12 25.1
0039E050 2019-02-21 11:24:20 22.5 13 25.1
0039E050 2019-02-21 10:51:59 22.4 14 25.1
0039E050 2019-02-21 10:19:38 22.4 16 25.2
0039E050 2019-02-21 09:47:17 22.4 19 25
0039E050 2019-02-21 09:14:57 22.4 13 24.9
0039E050 2019-02-21 08:42:36 22.4 13 24.8
0039E050 2019-02-21 08:10:18 22.4 13 24.8
0039E050 2019-02-21 07:37:58 22.4 13 25
0039E050 2019-02-21 07:05:38 22.3 14 24.8
0039E050 2019-02-21 06:33:18 22.3 14 24.8
0039E050 2019-02-21 06:00:59 22.4 14 24.7
0039E050 2019-02-21 05:28:39 22.4 15 24.9
0039E050 2019-02-21 04:56:18 22.4 15 24.9
0039E050 2019-02-21 04:23:58 22.4 15 24.8
0039E050 2019-02-21 03:51:36 22.4 15 24.9
0039E050 2019-02-21 03:19:15 22.4 15 25
0039E050 2019-02-21 02:46:54 22.4 15 24.9
0039E050 2019-02-21 02:14:34 22.5 15 24.9
0039E050 2019-02-21 01:42:13 22.6 16 24.9
0039E050 2019-02-21 01:09:52 22.5 17 24.9
0039E050 2019-02-21 00:37:31 22.5 15 24.8
0039E050 2019-02-21 00:05:09 22.5 16 25
0039E050 2019-02-20 23:32:48 22.5 16 25
0039E050 2019-02-20 23:00:28 22.4 16 25.1
0039E050 2019-02-20 22:28:10 22.4 17 25
0039E050 2019-02-20 21:55:50 22.3 19 25
0039E050 2019-02-20 21:23:30 22.3 22 25
0039E050 2019-02-20 20:51:09 22.1 18 25
0039E050 2019-02-20 20:18:48 22.1 16 25
0039E050 2019-02-20 19:46:28 22.1 16 25.1
0039E050 2019-02-20 19:14:08 22 16 25.1
0039E050 2019-02-20 18:41:49 22 15 25
0039E050 2019-02-20 18:09:28 22 16 24.9
0039E050 2019-02-20 17:37:07 22 16 25
0039E050 2019-02-20 17:04:47 22 16 25.1
0039E050 2019-02-20 16:32:28 22 16 25.2
0039E050 2019-02-20 16:00:07 22 17 25
0039E050 2019-02-20 15:27:46 22 17 25
0039E050 2019-02-20 14:55:24 22 17 25
0039E050 2019-02-20 14:23:03 22 18 24.9